GFSNE_prec_cthk_000.txt.gz
RH
20 18 16 14 14 14 14 14 17 19 16 16 19 21 25 27 28 31 33 34 38 40 43 45 44 43 42 46 52 49 51 52 59 47 47 47 49 52
19 16 15 16 16 16 15 15 18 22 23 19 23 28 29 32 32 34 41 46 46 45 50 47 44 45 56 54 53 56 53 47 49 48 49 47 49 49
17 18 19 20 19 17 18 22 25 32 36 24 29 30 34 37 34 42 47 49 50 45 45 45 48 56 55 56 55 54 53 51 50 52 51 51 49 48
19 21 21 21 20 20 23 28 33 36 45 44 33 36 37 40 48 49 42 40 37 36 44 53 54 53 54 56 56 57 61 60 56 53 52 52 55 61
23 22 23 23 23 25 29 33 39 43 48 52 42 43 42 51 53 44 38 34 34 40 46 49 54 55 55 58 62 61 57 51 46 50 51 48 49 50
24 24 25 28 28 30 34 42 44 41 43 50 54 49 58 55 52 44 35 38 40 50 55 59 65 65 63 56 51 48 49 49 47 47 49 49 52 52
25 26 29 30 31 37 44 44 47 48 51 55 50 59 55 48 47 42 46 49 62 74 71 75 81 80 74 67 59 53 51 51 53 59 57 57 61 59
26 29 30 30 32 37 39 45 47 53 53 57 59 52 48 47 47 55 62 71 70 80 88 81 86 78 77 73 59 63 67 73 78 75 69 57 53 59
27 29 30 32 34 34 36 44 46 53 59 60 55 51 54 57 60 66 78 85 84 84 86 79 82 75 70 60 65 72 79 85 95 96 93 89 76 58
27 30 31 30 31 41 45 51 56 58 54 52 58 61 64 64 80 90 89 88 89 88 85 78 72 65 63 66 69 77 86 89 97 98 97 99 97 89
28 30 34 33 39 49 59 60 56 53 51 60 62 64 75 93 97 93 91 92 91 90 85 85 70 67 68 70 73 73 80 92 98 98 97 97 90 87
30 32 34 42 52 61 62 59 53 54 60 58 70 88 93 96 98 98 97 95 94 90 89 93 78 72 70 71 73 69 75 86 98 97 95 86 85 80
36 36 39 50 57 59 57 56 59 63 73 88 90 92 95 96 98 99 99 98 95 94 93 97 93 82 79 75 77 69 69 85 95 95 92 84 79 77
44 44 50 57 57 56 53 56 69 89 90 91 94 96 96 96 97 98 98 98 97 95 95 99 97 97 93 83 77 73 79 91 90 95 98 89 76 73
46 50 53 55 52 48 53 81 91 91 93 94 96 96 97 97 97 97 97 98 97 97 98 98 98 98 96 95 91 85 89 93 97 97 98 90 85 72
47 48 51 46 46 64 85 89 92 95 95 96 96 97 96 95 97 98 97 97 97 96 97 98 99 98 92 90 95 94 94 95 96 96 88 84 75 75
47 49 43 46 72 87 89 92 94 96 96 96 92 87 82 85 93 98 98 98 98 97 97 97 98 88 95 97 97 93 97 96 91 90 84 79 77 79
48 44 56 78 88 91 93 94 95 96 94 91 90 85 80 84 92 98 98 98 97 97 97 98 90 87 91 90 93 96 96 97 98 98 97 92 90 78
46 60 81 89 92 93 94 95 94 92 89 86 84 76 78 88 89 93 96 98 98 98 98 97 92 90 87 95 97 96 97 98 98 98 97 91 97 97
57 82 89 92 94 95 95 93 85 81 80 78 80 77 77 81 88 92 89 90 97 97 97 98 98 93 89 94 96 96 97 98 98 98 97 97 98 93
82 89 92 95 94 91 87 85 83 81 77 76 79 81 81 82 83 90 92 89 92 97 97 97 97 98 91 89 97 98 97 98 98 97 98 97 97 98
87 90 90 88 88 87 87 86 87 87 79 78 81 83 83 83 84 85 84 87 89 92 97 97 98 98 98 89 95 96 95 97 97 96 98 98 97 97
87 85 86 86 86 86 85 88 91 89 83 82 82 81 81 83 85 85 83 83 82 85 94 96 98 98 98 96 92 95 95 93 95 95 96 97 98 98

GFSNE_prec_cthk_003.txt.gz
RH
30 28 24 21 18 18 18 19 20 23 20 20 23 24 26 27 28 33 33 32 38 43 46 48 48 46 47 46 45 45 52 55 52 53 55 55 51 50
30 26 22 20 19 20 20 20 23 27 27 21 23 28 31 35 32 34 34 41 45 48 53 51 49 48 46 45 46 49 53 56 58 62 65 65 58 51
29 24 22 22 23 22 22 22 24 29 32 20 24 26 26 29 34 37 44 50 54 50 49 44 47 47 46 55 58 59 60 60 57 56 59 66 61 61
26 23 24 25 25 24 22 23 25 29 37 37 25 25 28 33 33 34 44 47 46 43 41 45 49 49 52 54 54 58 59 61 67 68 69 68 66 60
26 26 26 25 24 23 25 26 30 34 37 40 36 33 37 34 39 45 39 36 37 38 38 41 47 58 67 71 69 70 72 68 64 62 62 60 60 60
27 26 25 24 24 26 29 32 35 36 36 39 43 42 42 48 51 48 37 39 39 38 44 49 65 74 77 80 82 81 75 65 64 65 61 54 49 50
25 23 22 23 26 30 33 33 33 40 43 51 47 56 55 52 50 46 48 45 46 50 66 73 75 75 76 78 79 80 80 73 64 57 56 55 58 58
21 19 21 22 23 27 28 33 44 49 56 62 62 59 51 54 55 59 60 64 75 85 86 80 84 79 77 75 69 72 71 71 72 73 74 75 76 77
21 22 23 24 26 26 29 39 50 54 61 64 59 55 58 62 70 79 90 92 89 89 91 85 84 76 68 61 62 62 70 72 77 83 87 90 93 92
25 27 29 29 29 38 46 49 50 50 51 51 56 62 76 87 93 95 95 94 93 93 91 87 87 85 68 63 61 64 70 77 79 80 89 95 97 98
28 31 32 33 35 47 51 52 48 45 47 59 75 87 88 92 97 95 94 96 91 91 92 93 90 90 77 68 64 65 71 77 76 78 91 97 95 95
32 31 31 37 43 51 54 48 47 53 73 81 82 85 90 94 98 98 97 96 95 89 94 94 92 93 86 74 69 67 68 72 73 80 96 93 94 89
31 30 34 38 44 48 47 48 68 83 82 84 85 87 92 95 96 98 99 98 93 91 96 97 94 92 92 83 76 71 74 73 82 94 96 95 94 93
33 34 36 42 47 43 47 75 86 87 86 88 89 91 92 92 89 91 98 98 98 96 96 99 96 98 97 94 91 86 87 87 92 97 98 98 91 94
36 39 40 44 39 49 75 84 86 87 90 92 92 89 89 83 80 85 96 98 97 96 97 98 96 89 92 94 92 92 92 91 97 92 94 92 91 88
40 40 40 39 56 77 81 85 88 91 93 92 90 88 86 76 80 92 96 95 95 94 96 97 88 96 94 95 97 97 98 97 97 98 88 78 84 81
41 38 37 56 79 83 87 89 91 93 93 91 87 83 78 76 85 91 95 96 96 96 94 86 90 92 95 98 98 97 98 97 97 96 96 80 78 79
39 38 56 79 85 88 90 93 93 89 83 80 76 78 76 74 80 91 91 94 97 96 94 88 91 92 95 96 97 97 97 94 98 98 97 86 78 81
38 56 79 87 91 92 92 89 84 83 82 77 75 78 80 79 79 88 93 90 96 97 97 93 90 97 97 98 98 98 98 97 97 97 97 97 94 77
53 78 88 92 90 88 86 85 85 87 87 79 79 81 82 81 82 83 88 90 93 97 97 98 92 91 96 97 97 98 97 98 97 98 98 95 97 86
75 86 88 89 88 86 86 85 87 90 88 84 83 82 81 81 81 83 84 83 87 97 97 98 98 90 94 97 98 97 98 98 98 98 97 92 90 92
83 82 86 86 85 84 85 90 91 91 90 88 86 83 82 84 85 85 84 83 81 91 97 98 98 93 90 96 97 98 97 98 97 98 97 96 97 88
76 82 84 83 83 87 88 87 88 88 90 89 88 89 90 91 90 86 84 82 82 82 94 97 98 96 88 94 96 94 95 96 96 97 96 97 96 88

GFSNE_prec_cthk_006.txt.gz
RH
34 32 32 35 34 30 27 25 26 27 22 21 21 19 21 22 23 25 25 27 32 32 33 38 42 42 45 49 49 47 48 49 47 46 47 47 48 54
34 33 37 34 30 27 26 28 26 24 25 18 19 22 24 22 22 27 28 30 30 34 42 43 41 40 43 44 45 49 49 50 49 54 54 55 59 64
35 38 35 31 27 28 28 25 25 25 26 17 19 18 18 21 26 29 32 41 44 47 46 42 43 45 43 45 49 49 49 49 56 56 56 56 65 66
39 35 30 28 28 25 25 25 26 26 30 27 19 20 22 29 29 33 38 44 47 43 44 49 49 48 48 49 48 50 52 51 51 58 67 69 65 67
34 30 28 25 23 23 24 24 26 29 32 33 28 28 32 38 41 42 43 40 42 44 49 50 52 55 57 57 55 55 56 62 66 69 75 76 76 72
30 27 23 22 21 24 25 27 29 29 31 36 40 44 48 46 49 46 46 51 54 64 67 71 74 75 74 75 74 75 74 75 77 78 79 77 74 70
27 24 23 23 24 27 29 27 29 37 43 48 50 48 48 45 52 59 67 75 83 88 83 86 88 87 86 83 80 78 73 71 75 78 78 78 72 64
25 25 25 25 24 25 25 31 44 46 47 49 46 45 51 58 69 78 81 84 80 91 88 85 90 87 86 85 83 82 71 67 68 69 66 70 76 76
27 26 26 27 25 25 27 34 44 44 47 44 47 57 69 76 80 82 86 88 88 89 90 84 86 84 87 87 85 76 68 65 67 71 75 78 78 81
28 29 30 26 29 33 37 41 39 37 36 51 71 75 79 82 86 88 87 88 88 89 90 85 89 86 85 85 83 76 65 67 71 73 73 72 75 80
29 30 29 32 33 39 44 40 39 34 57 76 78 80 81 84 89 87 87 85 83 87 89 90 89 88 87 82 80 77 66 65 67 69 70 74 77 85
33 31 31 34 36 40 42 42 41 63 76 77 78 81 83 83 85 85 83 81 87 84 90 92 91 92 88 87 86 81 70 67 70 73 74 79 90 96
33 30 30 35 40 40 42 49 72 78 79 80 80 81 81 83 84 80 81 91 89 89 92 95 85 85 89 91 93 92 90 84 85 89 94 95 95 98
31 30 35 40 38 37 47 77 81 83 82 82 83 83 81 78 75 75 87 96 96 94 94 91 86 91 95 95 94 91 94 94 94 96 97 97 88 90
32 36 35 36 33 45 75 81 84 84 85 86 84 78 76 75 71 76 87 93 95 94 94 87 92 93 94 94 96 95 94 93 96 97 96 92 90 92
34 35 34 33 50 77 80 84 87 89 89 82 76 71 69 72 72 70 86 87 91 92 90 88 92 94 92 93 96 98 98 96 94 98 93 88 91 83
37 33 32 51 77 84 87 88 87 85 81 80 78 71 73 75 76 76 85 90 92 93 89 84 92 92 94 97 97 98 98 98 95 96 94 88 90 83
34 33 53 76 85 85 83 84 84 83 83 83 79 77 77 76 77 80 83 85 91 94 94 86 90 89 89 92 95 94 98 97 98 98 97 97 87 81
34 51 76 84 83 82 82 82 81 84 86 84 82 81 81 78 77 77 79 80 86 93 95 96 88 91 91 91 93 98 97 97 97 98 97 96 84 81
47 76 79 80 82 81 80 83 87 87 87 85 85 84 82 79 78 80 80 80 79 91 94 95 91 89 92 93 93 95 98 97 95 98 98 98 90 87
73 73 76 81 80 82 85 84 83 83 84 86 86 86 87 88 88 87 84 83 82 86 95 95 96 87 92 93 93 94 97 98 97 97 98 93 85 95
70 73 79 79 83 83 80 80 81 82 85 88 88 88 88 88 86 85 85 82 80 80 92 96 94 87 86 90 92 94 97 97 97 97 95 91 91 88
70 73 76 82 82 78 78 84 88 90 91 88 88 91 92 92 91 88 87 85 81 78 83 94 94 88 82 88 89 92 97 97 97 96 88 87 88 89

GFSNE_prec_cthk_009.txt.gz
RH
34 38 40 38 33 33 32 29 30 28 24 21 22 20 21 21 20 20 22 24 28 30 30 30 29 34 41 41 39 40 42 45 48 50 50 49 50 49
40 40 34 34 34 33 29 29 28 27 23 20 19 22 22 22 24 26 26 26 28 29 35 41 44 42 41 41 42 43 44 46 50 51 55 60 60 55
35 33 35 35 31 28 27 27 24 25 26 18 21 19 22 26 28 34 38 38 37 38 39 40 48 48 45 45 45 45 45 45 54 56 60 64 64 63
34 36 34 29 27 26 24 23 24 27 28 24 20 22 26 29 32 36 39 41 41 45 57 63 65 67 67 63 55 52 52 57 57 56 57 57 62 61
37 34 29 28 26 24 24 26 29 30 28 29 26 28 31 36 35 35 40 50 60 65 69 75 79 78 79 81 82 81 77 68 60 55 51 51 53 57
33 30 28 27 26 26 30 34 34 33 31 35 38 34 35 32 37 48 55 62 69 73 73 78 81 84 84 83 83 82 82 80 80 80 78 73 69 67
30 29 28 27 28 33 36 35 35 35 39 42 41 40 33 39 58 62 67 71 74 77 74 81 81 81 81 82 84 84 84 85 85 79 74 74 75 76
29 28 28 29 31 30 31 33 36 42 40 41 41 38 45 67 67 71 74 76 70 79 76 77 84 80 83 84 85 82 85 88 83 71 65 62 65 65
29 29 30 31 29 28 27 32 35 38 39 40 40 55 71 73 74 74 76 76 75 72 75 76 82 82 85 84 85 83 80 84 73 65 64 68 71 72
30 29 30 29 29 31 32 33 34 33 36 45 68 75 77 79 79 79 77 77 72 73 85 81 84 85 82 80 78 83 86 85 72 63 68 70 70 69
28 29 29 31 33 32 35 34 36 34 48 72 76 79 78 79 81 80 78 75 69 80 83 86 85 78 77 77 84 89 96 88 73 65 65 67 67 68
30 31 30 31 32 35 37 38 38 51 75 77 77 79 80 80 80 83 78 70 80 81 86 89 80 78 80 76 85 91 94 95 92 86 82 82 83 83
33 32 28 30 35 38 38 41 61 77 78 79 80 80 79 76 72 74 75 73 83 86 89 92 81 84 84 84 87 93 95 93 95 95 96 95 93 92
33 28 29 35 35 33 42 71 79 81 81 82 83 79 72 65 65 70 72 72 86 88 92 93 83 82 87 89 90 90 95 95 96 96 97 97 96 87
29 31 30 32 29 43 74 80 82 82 80 77 74 72 70 68 68 70 70 76 82 89 95 92 86 85 89 91 90 88 93 90 96 97 97 92 90 94
29 28 29 30 46 76 82 80 77 77 77 76 76 75 74 74 74 72 71 74 76 84 93 93 86 88 89 92 91 92 94 96 96 97 97 98 92 92
30 29 31 50 77 81 78 78 78 78 79 80 79 76 77 77 77 74 73 73 74 79 88 91 85 88 89 88 86 92 93 95 98 97 97 96 88 85
28 32 55 72 74 75 75 76 79 81 82 81 80 80 80 79 78 77 77 75 74 76 87 93 84 82 83 83 88 91 92 97 97 98 98 94 93 82
32 53 66 69 74 74 77 78 77 78 79 81 83 83 84 85 85 83 80 77 75 77 86 94 92 86 85 86 84 94 94 95 96 97 97 96 92 75
47 62 66 72 73 77 76 76 79 80 81 82 84 86 87 87 87 86 84 81 78 77 81 92 95 87 84 86 89 87 95 97 98 95 93 95 93 79
57 61 65 70 76 75 75 80 82 86 90 91 92 93 94 93 92 89 85 84 82 78 79 88 94 88 81 84 87 90 92 98 98 98 93 96 85 81
58 62 68 73 76 74 75 81 83 86 91 94 95 96 93 91 89 87 87 85 81 78 78 84 93 85 79 83 86 92 93 92 92 96 96 96 88 80
58 62 68 74 75 75 78 81 84 87 95 96 95 95 97 95 92 89 87 84 82 78 77 85 92 84 80 83 84 90 94 91 88 92 93 93 89 84

GFSNE_prec_cthk_012.txt.gz
RH
37 37 40 38 36 33 32 32 30 27 28 28 27 26 26 27 26 26 27 28 29 29 31 31 35 40 40 39 39 41 40 49 51 46 42 49 49 51
41 39 36 34 32 31 31 30 30 29 26 26 26 27 28 27 28 29 31 29 29 30 32 34 42 43 45 50 52 51 51 50 47 43 52 51 52 50
38 36 33 32 31 30 31 30 29 28 26 23 25 28 27 29 32 36 36 31 29 32 39 45 51 54 59 64 65 66 66 66 65 58 52 52 53 57
36 35 34 32 31 30 30 30 29 28 28 25 25 25 28 33 35 33 34 32 34 44 53 57 61 63 65 66 69 69 70 72 74 75 74 70 57 56
36 35 33 31 30 31 31 30 30 33 34 31 27 27 31 34 33 33 32 41 53 59 62 65 66 66 69 71 72 72 71 74 77 79 80 79 77 65
36 35 32 31 33 32 31 33 35 33 31 31 32 35 37 32 35 35 47 63 64 67 67 67 66 64 69 72 70 72 75 75 78 80 83 86 85 81
36 34 34 33 28 28 32 35 34 32 33 39 43 40 34 34 42 57 67 68 70 71 66 66 63 64 70 71 73 75 78 78 80 82 81 84 86 84
34 34 34 32 30 30 33 33 34 37 41 44 42 43 38 49 64 71 74 72 68 74 71 60 71 72 72 73 75 72 70 71 75 78 80 78 71 68
36 33 30 30 32 33 33 34 36 41 43 40 42 45 56 71 74 75 76 76 74 69 68 67 79 74 76 73 67 70 75 80 81 84 80 69 68 67
32 30 30 32 33 33 33 34 38 37 39 42 53 65 77 79 82 80 77 73 69 71 75 74 76 78 78 68 70 74 80 88 95 89 76 68 65 67
29 28 33 33 33 32 33 33 35 36 46 64 77 82 84 84 84 80 74 72 63 61 70 78 81 82 76 69 77 85 88 90 91 92 85 78 77 75
29 33 32 32 31 33 35 35 36 50 73 81 83 83 85 85 83 82 76 70 69 57 68 80 85 83 73 72 79 83 87 92 94 95 95 94 94 92
33 32 31 31 32 34 36 37 58 78 81 82 81 80 78 76 75 77 76 76 71 66 71 82 87 84 78 78 77 82 83 88 91 94 97 96 95 93
32 31 31 32 29 30 39 68 77 78 75 73 74 74 74 74 76 77 78 78 78 74 72 82 89 84 81 81 83 79 84 88 93 95 96 96 96 94
31 31 30 28 29 43 69 73 70 71 71 70 73 75 75 73 73 74 78 77 74 76 75 76 90 88 84 84 84 81 80 84 93 97 97 98 96 97
30 25 26 30 53 67 67 69 70 71 71 72 73 74 74 75 77 78 77 76 73 73 77 74 87 92 84 87 86 84 84 89 91 96 97 98 96 90
26 25 30 50 62 67 68 69 71 71 73 74 75 78 80 81 82 82 82 80 78 73 71 74 84 94 88 86 86 85 87 93 95 97 96 94 91 85
27 29 46 59 64 65 68 70 71 76 79 82 82 82 83 83 84 86 87 86 80 76 74 74 81 90 83 79 82 85 91 93 95 97 98 92 86 89
28 42 56 60 63 67 68 68 73 77 81 87 91 92 92 93 92 90 88 84 82 80 76 76 84 92 84 78 76 82 93 92 93 96 96 87 86 88
37 49 57 63 66 68 68 69 75 81 84 88 94 94 94 93 91 89 87 86 84 80 77 75 86 94 86 80 81 81 92 92 95 95 93 85 85 90
42 52 59 63 67 70 71 74 78 84 88 94 96 97 98 96 95 91 88 85 83 82 76 75 87 92 85 82 85 88 88 93 96 96 91 82 84 79
49 55 60 65 70 72 75 79 84 88 93 97 98 98 98 98 97 94 90 85 82 80 77 80 91 87 83 84 87 90 90 89 95 96 95 86 82 81
51 56 63 67 71 74 79 82 85 90 94 97 99 98 98 98 98 95 91 87 82 79 78 89 93 87 84 86 90 94 91 90 95 97 96 87 83 82

GFSNE_prec_cthk_015.txt.gz
RH
55 47 44 40 39 36 35 34 34 31 28 28 28 29 28 27 27 26 22 21 26 26 27 28 28 28 32 34 35 38 41 42 45 45 43 41 48 47
52 49 45 39 37 35 34 32 29 30 30 29 28 28 29 29 26 26 26 28 27 27 29 30 34 35 37 40 45 48 52 53 55 58 59 60 58 57
55 52 41 37 36 33 29 30 32 31 30 28 29 29 28 26 27 28 29 25 25 27 29 34 39 42 47 53 56 58 60 60 60 61 64 66 66 66
55 44 39 38 32 31 32 32 31 31 32 32 30 28 29 26 30 33 31 29 27 31 40 46 51 56 59 61 63 64 62 64 66 68 68 69 70 72
45 41 36 34 34 33 33 32 32 31 32 31 30 27 26 31 37 33 29 31 37 46 51 55 62 60 61 64 61 60 64 67 69 69 71 71 72 72
40 37 37 35 35 34 32 30 30 30 31 29 28 26 34 40 37 34 34 42 52 59 63 62 64 60 63 59 63 67 70 71 73 71 68 66 68 74
38 36 36 36 34 32 31 32 33 32 30 28 30 34 35 33 36 43 50 58 65 72 64 63 66 60 57 65 68 69 73 73 67 68 69 70 70 71
36 35 35 33 30 30 34 33 32 32 32 36 41 39 34 40 52 61 68 71 69 73 69 60 67 60 62 68 70 76 73 67 70 73 75 79 80 79
36 35 32 28 28 32 33 32 29 31 36 36 38 42 52 63 69 72 77 77 73 67 69 58 61 57 62 70 75 74 69 71 76 81 83 84 83 78
34 31 27 29 31 33 29 29 29 30 32 36 50 65 71 75 79 80 79 72 66 64 73 64 56 53 60 73 74 67 68 78 83 87 90 91 90 82
29 25 28 31 31 30 32 31 30 30 37 62 71 75 78 78 77 74 68 67 61 58 67 66 59 60 62 71 73 67 74 78 80 82 88 92 95 94
24 24 29 31 30 31 33 32 30 45 63 66 68 68 69 70 73 75 76 72 69 60 67 64 62 69 62 76 73 68 71 76 76 79 85 94 96 95
25 25 24 30 31 31 33 34 53 66 63 63 64 65 67 71 74 74 77 78 73 68 72 70 63 67 72 78 73 70 74 76 76 79 86 94 97 97
26 25 26 30 31 27 32 56 63 63 63 63 64 66 68 68 69 72 77 78 80 79 72 76 68 70 70 81 71 72 76 78 78 80 85 92 96 97
27 30 25 23 25 30 55 61 62 63 64 64 67 71 72 72 74 76 79 82 84 83 81 78 75 71 74 83 76 73 77 76 79 83 90 95 97 96
23 22 23 24 28 53 58 58 62 65 67 69 72 76 82 84 83 85 84 83 80 80 85 81 77 73 73 85 82 76 79 80 78 86 92 93 96 97
25 22 23 27 49 57 58 61 65 66 69 74 79 81 85 89 90 89 88 86 86 81 77 78 78 73 75 88 83 76 78 80 86 92 93 92 92 88
23 24 28 43 53 59 62 64 65 67 74 81 85 89 92 93 92 93 93 88 83 82 80 76 73 69 74 85 83 77 79 84 91 94 95 89 85 86
25 28 38 50 58 63 66 67 69 74 81 88 91 94 95 96 96 94 94 91 85 80 78 78 74 76 84 84 73 82 83 89 91 94 97 89 83 84
27 35 48 55 61 65 69 72 77 82 86 90 93 96 96 97 96 97 96 91 85 78 78 78 78 87 94 85 81 79 88 93 92 91 88 86 88 88
34 45 52 60 64 69 73 76 81 84 87 91 96 97 98 97 96 96 93 92 87 82 78 76 87 98 90 86 88 87 89 93 93 94 89 89 88 86
43 49 57 63 68 71 75 79 81 83 87 92 97 98 98 97 97 96 95 94 87 83 81 90 98 91 87 90 91 93 91 94 95 97 95 88 90 87
46 54 62 69 73 76 78 78 80 82 86 92 97 98 97 98 98 98 94 90 85 84 96 97 93 87 90 95 97 93 92 90 95 96 96 94 96 93

GFSNE_prec_cthk_018.txt.gz
RH
71 68 62 53 46 42 41 38 35 33 31 28 28 28 26 24 23 22 22 20 20 21 24 27 27 28 28 30 36 38 38 38 39 41 47 48 48 49
70 66 58 48 46 44 39 35 32 30 29 29 28 27 27 25 21 21 20 21 21 21 21 28 28 30 32 38 41 40 40 44 47 51 55 57 58 62
70 64 51 51 47 39 35 30 29 33 32 29 27 27 27 25 23 22 22 24 23 20 26 31 34 38 42 46 47 48 52 56 57 59 60 62 67 67
70 54 54 47 39 34 30 33 34 33 31 28 27 27 25 22 21 24 27 26 22 23 35 39 44 49 52 55 58 60 60 62 62 61 61 63 65 66
58 56 47 39 32 32 35 34 32 28 27 28 26 24 22 23 25 27 24 24 30 36 41 47 52 56 60 65 63 62 60 62 63 67 68 68 67 66
57 45 36 34 36 37 35 31 29 28 30 30 28 26 26 28 31 29 28 39 44 50 53 58 61 58 62 63 62 61 60 65 71 70 71 67 62 60
40 31 35 38 36 34 33 32 34 34 31 31 29 29 31 29 36 45 50 51 56 61 61 60 59 58 57 57 57 58 61 71 74 75 72 67 67 67
31 35 36 34 30 29 28 33 33 32 30 30 32 32 32 46 55 57 58 61 57 69 62 55 61 56 56 55 55 60 60 73 80 77 71 73 75 76
36 36 34 29 26 26 28 30 28 27 31 33 31 40 50 59 61 61 61 61 58 54 57 50 53 53 56 53 56 56 62 76 78 74 74 77 80 81
34 31 28 26 25 28 29 29 28 27 26 30 46 55 61 62 62 61 60 58 54 56 61 59 53 51 50 51 57 55 62 74 78 74 76 78 77 79
27 25 23 25 27 30 30 28 28 27 30 47 58 60 59 61 62 61 60 59 53 55 65 64 56 54 51 49 57 60 66 78 72 69 73 77 76 77
21 21 22 23 24 30 30 31 30 29 48 56 55 56 56 58 62 65 64 63 63 58 71 66 62 65 51 50 59 63 64 73 69 69 72 74 76 79
25 22 20 21 29 30 31 32 32 54 57 54 54 55 58 62 67 71 76 78 75 74 78 77 70 71 71 54 53 61 66 72 68 67 73 74 77 83
21 20 21 24 26 24 28 32 54 58 54 56 56 58 63 69 73 77 82 86 89 84 80 87 77 77 73 64 55 59 67 75 69 68 72 75 78 85
20 21 22 23 23 24 30 52 54 54 58 58 58 65 73 76 80 83 88 88 89 89 86 83 83 79 77 70 62 63 72 77 68 71 72 74 80 88
20 21 21 20 24 29 47 52 54 58 61 63 67 75 80 85 88 90 89 89 86 84 88 83 81 81 76 73 70 71 80 76 72 73 75 81 87 90
28 21 20 21 25 44 50 54 57 61 66 72 76 80 85 90 94 95 94 90 89 82 79 79 79 80 76 75 79 83 77 72 72 79 86 85 87 85
24 22 22 26 42 49 53 58 63 67 71 75 80 86 90 92 92 93 94 92 88 85 81 76 72 70 68 78 88 81 76 78 82 83 84 83 84 87
22 22 26 39 47 54 59 64 66 71 74 78 82 90 94 93 94 94 94 93 88 86 82 77 74 76 80 85 82 84 80 82 83 85 89 83 77 83
23 27 38 46 53 59 64 67 69 72 75 79 85 92 94 94 95 96 96 94 88 81 79 79 86 96 96 91 84 79 83 87 90 89 89 82 81 81
28 36 45 53 60 66 69 70 71 74 76 79 87 91 93 95 94 94 92 92 88 85 86 95 98 97 91 88 91 89 89 91 95 89 90 89 84 90
37 44 53 61 68 70 71 71 73 76 79 81 87 90 92 93 90 88 88 91 94 97 97 98 95 92 92 96 95 93 90 92 89 88 88 87 90 90
45 54 61 68 71 72 73 71 74 77 83 81 84 88 91 90 92 96 97 98 97 96 98 95 96 98 98 97 96 91 90 92 91 93 94 95 96 92

GFSNE_prec_cthk_021.txt.gz
RH
71 74 72 67 61 56 52 47 42 36 33 31 30 28 27 26 24 23 22 19 20 19 20 27 28 28 27 28 33 38 39 39 42 41 43 43 43 44
74 76 71 65 60 56 51 44 39 34 32 30 29 29 26 22 21 20 19 16 16 17 22 26 24 28 30 32 38 37 37 41 43 50 50 51 52 55
76 76 70 64 59 54 49 40 34 33 32 32 29 25 23 21 17 17 16 17 17 15 20 22 29 34 35 39 40 43 48 49 52 54 58 62 63 63
79 75 70 62 56 52 40 34 33 36 34 29 26 24 21 19 18 19 19 18 17 19 26 32 37 43 44 48 54 55 58 60 61 62 62 62 63 64
77 73 66 61 51 38 34 36 37 33 29 27 25 23 20 17 20 20 19 21 26 33 38 40 44 47 52 54 56 59 60 60 62 63 62 60 66 69
73 66 61 46 36 35 39 37 33 29 28 29 27 23 21 21 23 22 24 33 36 44 46 48 52 51 51 51 53 54 54 57 58 62 63 65 70 72
70 57 40 33 38 39 35 32 30 29 30 30 27 26 27 24 25 34 39 41 43 47 45 47 47 45 46 47 49 52 54 57 58 60 63 68 73 73
48 34 34 38 35 30 29 28 29 30 32 30 30 30 24 29 39 45 46 47 42 48 44 43 46 42 45 48 49 54 58 57 55 59 59 69 76 74
33 37 37 32 29 26 26 27 26 28 30 31 29 26 34 46 49 49 51 50 48 46 45 40 43 41 46 47 53 54 55 56 57 58 64 72 78 74
37 32 27 26 24 25 26 29 29 28 27 25 27 39 50 53 54 53 51 52 51 52 56 49 50 48 49 50 54 56 59 57 58 58 63 73 74 71
27 24 23 23 21 23 30 29 26 24 24 27 44 53 52 54 56 56 58 59 55 58 70 64 60 57 56 57 57 58 61 61 57 56 64 72 75 69
23 22 21 21 21 28 30 30 27 24 28 46 50 50 52 54 59 66 69 69 70 64 76 71 68 68 55 59 64 63 62 63 59 56 60 68 70 66
22 18 17 19 22 30 30 28 26 34 49 48 48 51 53 58 68 75 81 83 81 80 84 83 74 74 72 62 61 64 66 61 59 55 56 69 68 65
16 17 20 22 22 22 23 24 32 49 47 49 52 54 58 66 73 78 85 87 92 87 83 89 81 80 75 67 64 64 65 60 58 55 58 71 65 65
18 22 24 23 19 18 20 31 46 47 50 55 58 62 67 71 76 81 88 89 90 92 92 89 87 82 81 73 68 66 61 59 59 59 71 68 63 66
23 24 23 19 18 19 27 44 48 53 58 61 64 67 71 77 85 88 84 86 83 82 90 89 86 84 79 75 73 66 66 69 72 76 71 66 67 72
31 22 19 18 18 27 44 49 53 59 61 64 67 69 75 82 87 89 90 90 90 84 81 84 86 84 80 80 78 82 84 80 73 72 76 81 84 86
22 19 19 20 29 42 48 54 59 60 64 67 70 73 78 82 82 87 91 91 89 87 82 79 76 75 79 85 90 85 77 78 81 83 82 79 83 84
19 20 21 31 40 48 55 59 61 63 66 71 71 77 81 80 81 83 85 87 86 84 82 88 93 96 93 87 84 87 84 85 86 86 87 84 79 77
20 24 31 40 49 57 61 63 63 65 70 74 72 80 83 82 83 87 91 94 95 94 96 96 94 93 91 88 86 82 84 84 86 87 90 88 83 80
26 32 41 51 59 63 65 65 65 67 71 77 74 80 85 89 93 96 97 98 97 97 94 93 94 95 96 95 93 89 85 86 89 86 87 86 83 87
36 44 53 61 64 65 67 68 68 68 72 78 75 76 82 87 91 94 96 96 96 95 94 95 95 96 97 96 93 88 87 87 88 87 92 93 92 90
47 54 61 64 66 69 71 71 71 72 74 79 77 70 79 81 87 90 91 90 91 94 96 95 94 95 95 93 89 86 86 86 83 84 87 94 96 94

GFSNE_prec_cthk_024.txt.gz
RH
65 64 66 67 67 65 62 60 56 51 45 42 36 33 31 30 29 27 25 22 19 19 20 21 20 25 28 28 28 29 31 30 34 31 32 35 39 41
67 67 70 72 71 68 65 63 58 51 43 35 33 32 31 30 27 24 21 18 17 16 17 19 19 23 28 29 30 30 33 35 37 38 44 45 46 49
70 72 74 76 74 73 69 64 55 47 38 34 33 33 30 25 21 18 16 16 15 13 18 20 22 29 30 32 36 39 41 42 44 46 47 53 56 57
75 79 79 79 80 75 68 57 48 38 35 35 36 30 26 22 20 18 16 13 13 15 18 26 29 32 35 38 41 47 47 48 50 51 52 54 54 55
78 79 85 82 77 68 60 46 37 36 39 36 31 27 24 20 19 16 15 14 17 22 27 31 34 36 42 44 46 45 45 45 46 47 52 56 56 57
81 87 82 77 67 55 41 35 39 40 34 29 27 25 22 19 18 19 17 21 26 33 35 35 36 38 40 38 37 37 37 38 42 44 48 56 57 58
87 82 74 64 47 35 37 41 37 31 27 27 27 24 22 21 20 21 27 32 34 36 36 37 37 36 37 37 38 39 39 40 44 46 50 56 57 57
78 71 56 35 33 39 37 32 29 28 28 29 29 27 24 22 23 32 39 39 35 40 39 37 41 39 41 43 43 43 43 48 47 47 51 53 56 57
61 38 32 37 37 30 27 24 24 23 26 31 29 26 24 26 39 41 41 43 41 42 47 42 50 46 51 51 53 53 51 50 51 51 51 53 57 59
32 36 38 31 26 23 22 22 22 24 26 25 24 23 31 44 47 47 46 45 45 52 62 49 54 53 55 57 62 64 61 58 56 57 53 54 55 55
39 33 28 23 20 22 23 28 26 24 22 22 23 37 46 47 49 49 50 54 53 57 72 63 60 60 60 60 69 73 70 66 63 59 57 54 54 55
29 24 20 18 22 25 31 31 26 22 22 24 40 44 46 50 53 57 62 65 68 61 76 71 68 74 59 63 70 74 73 70 65 62 59 58 57 55
21 18 18 21 26 28 29 25 22 25 26 40 41 45 50 54 59 66 73 76 76 79 88 87 70 74 76 67 66 72 70 66 66 64 62 58 55 55
20 21 23 26 26 24 20 18 23 28 38 41 46 51 54 59 64 69 78 84 86 88 88 92 80 81 77 73 68 67 69 68 67 65 62 58 55 55
23 26 27 26 21 17 17 17 26 40 43 48 51 55 59 61 66 73 77 81 83 90 93 91 86 84 83 76 69 66 64 65 69 64 60 58 60 63
27 27 26 22 20 17 17 29 42 46 50 53 56 61 61 65 74 74 72 76 76 77 86 87 84 82 78 78 80 74 75 76 72 73 75 75 73 70
29 26 20 18 17 18 31 43 48 52 54 58 62 65 63 73 76 75 76 76 79 76 74 78 84 89 93 94 91 88 88 86 82 79 79 77 76 76
24 20 18 18 20 34 44 49 54 56 58 62 67 68 66 75 78 84 88 90 90 90 88 89 91 90 89 87 90 87 83 79 82 85 86 84 86 87
18 18 19 25 35 45 52 56 58 59 61 64 68 70 67 75 80 84 87 89 90 90 89 92 93 93 89 84 86 89 87 86 89 90 89 86 87 86
19 20 30 36 47 55 58 60 62 64 65 67 72 72 68 75 78 82 85 86 85 86 89 93 95 96 95 94 91 87 87 84 83 86 85 87 84 82
22 34 40 51 58 60 63 66 68 68 69 71 75 74 68 72 79 83 84 83 83 86 89 91 96 97 98 96 93 88 84 88 87 85 84 85 85 87
37 45 54 60 62 64 68 70 70 69 71 73 76 75 71 70 74 76 78 81 81 83 86 90 94 95 97 96 94 89 87 84 87 87 85 84 84 85
47 56 60 63 67 70 74 73 71 70 72 74 76 77 72 71 75 77 77 75 76 81 87 89 92 97 97 97 93 87 85 82 81 82 82 87 93 93

GFSNE_prec_cthk_027.txt.gz
RH
75 71 77 77 68 66 66 66 64 62 61 64 60 54 46 39 34 31 30 29 26 22 20 19 23 23 21 23 26 29 29 29 29 29 31 33 40 40
79 76 81 81 75 70 70 70 71 67 61 58 54 47 38 35 32 31 29 25 22 19 17 14 20 21 22 26 29 30 30 32 34 34 35 36 41 44
90 82 80 75 76 74 75 75 72 66 61 55 47 39 35 33 31 27 23 20 16 14 13 15 21 22 26 29 33 36 37 38 38 39 39 41 42 42
87 94 85 82 81 79 76 74 70 64 58 46 39 35 37 32 28 24 19 15 13 13 14 18 25 28 31 32 36 38 40 41 42 42 43 45 46 47
86 84 79 81 81 80 76 72 66 58 44 38 39 38 32 26 22 19 16 13 14 17 20 24 27 30 35 36 38 38 37 35 35 35 35 36 42 46
86 85 84 83 81 76 72 63 50 39 38 40 34 30 27 21 20 19 16 15 19 22 26 29 31 33 35 34 32 31 31 31 32 36 37 36 39 42
88 88 85 79 78 70 55 42 37 41 36 31 29 25 22 22 22 19 19 22 25 29 30 31 33 34 35 36 38 38 38 38 38 42 41 43 45 44
91 87 80 72 62 45 35 38 38 32 30 28 26 26 25 22 21 21 28 33 31 34 35 32 38 38 42 44 46 47 48 48 52 50 48 46 46 49
84 75 63 45 34 35 36 30 26 24 26 27 26 25 23 19 24 32 38 37 39 39 42 37 47 46 51 53 58 58 57 59 59 58 55 54 55 56
61 46 33 36 36 30 26 27 27 25 25 23 22 19 21 28 39 39 40 41 42 47 58 47 51 51 54 55 61 64 69 69 68 67 65 62 62 59
33 36 38 30 25 23 29 29 27 23 22 19 18 21 34 38 40 43 45 47 46 50 61 63 58 57 58 55 60 68 75 77 74 71 69 66 61 58
37 30 25 23 24 29 29 28 25 21 19 18 21 33 36 41 46 49 52 53 58 55 63 64 64 71 58 58 63 71 75 81 80 74 70 66 64 61
26 23 22 22 27 29 28 25 22 23 22 24 32 36 43 46 50 54 57 63 64 63 68 72 65 70 73 62 59 68 72 73 74 72 70 67 64 66
22 22 23 26 30 28 23 18 20 21 23 33 39 44 46 52 54 55 64 69 69 69 70 77 72 75 74 70 66 70 76 75 73 69 68 67 67 66
22 24 29 28 24 19 17 16 15 25 36 42 46 48 53 56 56 59 68 72 74 78 83 87 88 89 91 90 88 83 77 75 79 76 75 72 69 66
25 26 25 22 18 16 16 17 31 40 46 49 50 54 56 59 57 63 68 73 75 78 83 85 86 88 89 91 91 84 89 90 86 86 83 83 83 81
23 19 18 16 16 16 20 36 45 50 54 54 55 57 60 61 58 65 70 74 77 76 78 86 92 94 94 91 87 89 86 85 81 81 83 83 80 79
16 15 16 17 18 27 39 49 55 57 59 59 60 62 64 62 57 65 72 77 77 77 80 84 88 90 89 89 90 86 84 84 85 84 85 86 86 88
15 17 18 22 34 43 54 57 59 62 63 63 64 65 67 64 60 64 70 73 75 78 80 84 88 92 90 87 87 91 83 86 88 86 88 89 85 84
17 18 26 37 48 57 60 62 65 67 66 66 68 69 71 67 66 68 73 75 73 71 74 83 89 93 93 91 88 87 89 84 84 84 84 86 83 81
20 30 38 51 58 61 64 68 71 69 68 69 71 71 73 73 72 71 71 73 75 72 70 78 89 95 98 96 92 91 90 88 86 83 81 79 78 80
31 40 51 57 60 65 69 72 72 71 69 71 71 72 74 75 73 69 68 66 65 67 68 75 84 93 96 96 95 92 89 88 90 90 88 83 81 77
39 48 55 60 66 69 72 74 73 72 71 70 71 71 71 70 72 68 65 64 62 59 64 73 84 93 98 98 99 95 93 93 91 88 89 94 95 94

GFSNE_prec_cthk_030.txt.gz
RH
86 91 85 75 72 74 75 80 78 69 67 75 72 71 66 60 55 46 40 35 32 28 26 24 22 21 24 24 23 25 26 31 30 30 30 31 32 35
83 88 81 89 86 83 87 84 76 74 71 71 72 69 62 57 48 40 34 30 28 25 22 18 18 23 22 22 25 27 29 31 33 34 34 36 37 43
82 83 82 88 83 92 83 81 80 76 73 71 66 62 55 45 37 33 29 27 23 18 15 14 17 23 24 25 26 30 32 33 35 37 37 38 39 41
79 87 93 93 89 92 89 89 85 76 70 65 62 54 42 37 32 30 27 21 17 15 16 18 19 20 23 26 29 30 32 34 35 37 38 39 40 40
97 79 97 94 89 87 85 85 78 75 67 60 50 41 35 33 31 25 22 17 16 16 18 20 21 23 25 28 32 32 32 32 33 34 38 39 39 40
87 97 95 95 95 94 90 87 78 69 59 49 38 35 35 29 26 23 21 18 18 18 21 24 25 26 28 29 30 31 32 33 38 39 39 39 39 39
87 97 95 95 98 90 78 69 62 53 43 36 35 35 30 26 24 23 21 20 20 23 23 24 26 29 33 36 39 42 43 44 45 49 48 50 50 49
97 98 98 94 84 74 65 56 46 36 35 35 32 30 27 25 25 23 24 27 27 26 26 29 34 35 39 42 47 49 53 56 57 60 57 56 55 56
98 95 87 77 67 56 44 36 33 30 29 31 30 28 28 25 24 26 29 30 31 33 34 31 38 39 44 46 50 54 57 60 62 62 62 60 58 59
84 77 66 55 45 36 33 30 30 28 28 28 26 26 25 25 28 31 31 34 36 38 42 38 43 41 42 44 51 55 60 64 64 64 65 63 64 64
60 51 38 37 34 26 30 32 30 29 28 27 24 23 22 25 30 33 37 39 38 40 49 51 49 47 45 44 48 51 56 61 64 65 63 64 66 68
36 36 29 25 24 27 30 30 30 26 23 20 18 19 27 32 38 42 44 46 46 47 57 62 60 63 56 59 56 59 60 63 63 64 66 67 68 68
27 24 22 21 26 29 29 26 21 22 21 17 18 29 33 41 45 48 50 51 51 59 66 69 64 67 69 64 68 72 73 75 76 73 72 71 69 68
20 21 23 26 24 21 17 15 17 18 15 20 32 36 44 47 50 52 55 54 56 65 70 73 70 73 74 72 70 73 76 76 78 79 84 86 86 80
19 18 19 18 17 15 13 14 14 15 27 37 42 48 49 51 54 56 58 55 60 68 72 73 73 76 79 79 77 77 75 78 82 80 81 82 84 86
15 16 15 13 13 13 14 15 19 35 41 49 52 52 53 56 59 60 56 54 58 65 72 73 74 78 81 85 84 78 81 81 81 80 81 80 79 83
14 13 13 13 14 14 17 29 40 48 53 55 57 58 60 62 63 63 60 60 64 64 64 69 72 76 83 87 83 85 82 78 77 78 81 80 79 82
13 13 13 14 16 25 35 46 52 54 58 60 62 62 64 65 66 65 64 64 63 63 66 65 64 67 77 83 91 86 82 76 79 85 84 80 79 84
13 13 14 20 29 40 49 53 56 60 64 65 64 66 67 68 68 68 68 65 61 58 58 60 61 68 75 81 85 96 88 87 83 80 81 86 86 86
14 17 23 30 41 49 53 57 61 65 66 66 66 68 69 69 68 68 68 64 60 56 56 58 61 68 81 87 85 84 93 90 88 86 85 84 81 80
18 23 32 41 48 52 57 61 65 68 68 68 69 69 69 69 69 68 67 66 63 66 64 53 55 68 81 92 90 89 89 94 92 88 85 83 80 78
23 31 39 47 51 57 62 66 69 70 70 69 69 70 70 72 73 72 68 65 68 69 62 51 50 62 82 96 94 93 91 90 94 96 97 95 91 85
28 35 43 51 58 64 68 70 72 73 73 73 71 70 72 74 75 74 68 68 71 68 54 51 54 67 89 98 98 97 94 94 94 86 88 95 95 96

GFSNE_prec_cthk_033.txt.gz
RH
86 84 86 86 82 94 84 87 78 79 85 82 81 81 74 70 66 61 54 48 43 37 32 28 24 22 21 22 25 24 23 24 26 32 33 32 32 34
89 85 84 87 88 87 85 86 81 90 85 88 85 83 79 73 66 58 51 45 40 34 26 23 21 19 20 24 24 25 24 25 28 32 33 33 34 35
92 84 83 86 87 91 90 94 90 88 91 90 90 87 80 72 64 56 47 42 34 26 23 20 17 19 24 24 24 24 24 28 32 33 33 34 35 36
87 84 84 96 86 94 95 93 88 95 95 92 87 79 73 66 58 49 42 31 27 23 18 17 19 19 19 19 21 25 26 28 28 29 31 32 36 36
85 85 93 90 92 94 94 97 97 98 95 91 80 71 63 54 47 38 30 28 22 18 18 20 21 21 22 21 23 24 23 25 27 29 31 32 34 36
82 83 87 90 97 96 94 97 98 94 85 79 71 64 53 42 35 31 29 23 20 19 23 23 23 23 23 23 25 25 26 28 29 31 37 39 40 42
92 86 92 96 98 99 92 92 89 83 76 68 57 47 40 35 36 30 27 23 22 24 24 24 25 27 27 29 31 32 33 34 34 35 40 41 42 47
88 91 95 98 96 95 89 85 78 67 57 52 43 38 38 31 28 26 26 29 29 27 27 29 30 30 31 35 38 36 35 36 37 39 43 44 46 52
95 93 97 97 88 83 76 67 52 43 38 39 38 33 31 28 26 27 28 30 30 29 31 31 32 31 37 41 44 43 42 41 43 44 45 46 47 55
94 96 88 80 69 55 45 39 32 28 27 27 28 27 25 24 26 27 30 33 33 35 37 34 35 36 41 49 50 50 51 51 51 51 54 54 52 53
84 66 50 43 36 30 24 23 24 26 25 23 20 19 20 20 24 29 32 36 38 41 42 40 36 41 48 54 55 55 56 57 59 61 63 66 69 65
41 39 31 24 22 20 26 25 24 21 17 15 15 15 17 25 32 35 40 43 45 43 43 42 43 50 51 55 58 61 64 67 67 67 68 68 70 74
26 22 20 18 19 23 23 22 18 18 15 13 13 21 29 35 39 45 47 47 47 48 49 49 48 56 59 54 58 64 68 72 73 72 70 72 74 76
17 16 16 18 21 18 16 12 11 13 13 15 28 35 39 45 49 48 49 51 51 51 52 54 55 60 61 58 58 63 71 75 74 73 74 75 76 76
14 14 16 15 12 11 11 11 13 15 25 36 40 45 49 50 50 53 56 56 55 55 57 60 62 62 62 59 59 62 70 76 79 76 75 76 75 77
13 13 12 11 11 11 13 15 22 33 38 43 47 51 53 55 56 58 58 56 56 59 61 62 60 59 57 56 60 65 74 79 78 75 72 76 79 80
12 12 13 12 13 14 19 28 37 42 46 50 54 56 57 58 60 60 60 59 59 57 55 55 55 55 54 55 59 69 77 81 78 77 77 77 79 80
13 13 12 13 16 23 33 40 44 48 51 55 58 58 59 60 61 61 61 59 57 58 55 56 59 57 51 45 62 73 82 83 84 85 84 79 82 85
13 13 14 18 26 36 42 45 48 53 56 59 60 60 60 61 60 61 63 63 61 60 62 65 64 59 52 48 55 88 89 86 87 84 84 81 77 76
14 15 19 27 37 43 45 49 54 58 61 62 62 62 62 62 63 65 68 67 64 61 64 69 64 55 57 56 58 76 92 91 88 86 84 83 83 83
15 19 26 34 42 46 50 55 59 63 65 66 66 66 67 66 66 68 69 70 68 65 65 67 58 50 57 60 64 84 86 95 95 94 90 87 79 77
18 25 32 38 46 51 55 58 62 65 67 69 69 69 69 68 69 70 71 70 68 67 64 66 54 48 55 66 71 85 85 84 91 95 97 94 89 83
23 29 34 43 51 55 59 63 67 68 69 71 72 72 71 69 69 70 71 72 71 68 66 64 56 50 55 62 73 90 90 87 87 85 89 94 95 92

GFSNE_prec_cthk_036.txt.gz
RH
89 91 92 91 89 87 83 79 82 81 83 87 84 81 77 77 79 77 75 69 65 61 56 51 42 37 33 28 22 21 25 26 24 26 31 34 33 32
95 96 92 92 90 87 85 83 91 88 90 86 83 82 91 90 88 89 83 75 69 63 54 47 40 36 30 26 28 28 26 26 29 30 32 32 32 32
91 94 99 95 96 91 89 90 86 88 89 93 95 93 95 97 96 88 82 77 70 63 52 42 36 30 26 27 25 26 28 27 26 27 31 32 31 32
88 89 90 87 84 91 91 84 90 93 93 92 98 97 97 97 93 82 75 68 63 50 41 33 27 25 24 22 22 22 27 26 25 25 27 26 27 31
75 79 88 82 83 97 89 84 89 95 98 98 98 98 92 86 84 78 73 62 47 38 30 27 25 24 23 22 22 22 23 21 22 23 25 27 28 29
76 77 85 89 88 84 82 87 87 90 94 96 95 90 87 82 76 67 55 49 45 33 27 25 24 24 25 25 22 21 21 21 22 23 25 28 30 31
83 79 93 91 80 83 94 95 91 97 97 93 89 85 80 72 57 50 44 39 31 22 23 28 29 27 26 24 23 23 24 25 27 29 30 34 38 38
83 78 77 81 90 96 96 90 94 92 87 82 75 62 50 46 40 34 29 26 25 21 29 31 31 29 27 26 27 28 29 30 32 34 39 43 43 43
90 97 98 93 97 97 96 87 83 73 59 50 43 34 30 27 26 24 25 26 27 28 31 29 31 30 31 31 32 33 34 36 38 42 42 44 47 49
98 97 88 94 90 82 69 52 40 32 24 22 24 25 25 24 24 26 23 24 28 31 36 35 37 37 37 36 36 39 42 45 47 47 48 52 54 55
85 81 76 65 47 38 30 23 19 21 23 21 19 16 14 14 15 20 24 31 34 40 43 44 42 41 40 37 40 46 50 52 51 53 55 58 59 61
53 46 40 32 26 20 20 22 21 19 18 14 18 15 11 13 20 27 33 39 46 47 46 45 46 46 40 39 45 51 54 55 54 56 60 65 67 67
32 26 21 16 13 13 16 17 15 13 13 12 11 13 21 29 34 38 43 47 47 48 49 50 48 50 50 45 46 49 51 50 52 57 65 70 71 72
16 14 13 12 11 11 13 14 12 11 13 13 22 31 35 38 42 45 48 50 52 52 53 55 54 56 53 48 46 44 46 47 51 59 71 74 75 74
13 13 13 12 13 12 11 10 11 13 20 29 34 38 41 45 48 50 52 53 54 55 57 59 57 55 51 49 50 49 48 41 53 65 73 75 76 75
16 15 13 13 12 12 11 12 18 27 34 38 41 44 47 50 50 52 55 58 59 60 58 56 56 56 54 55 57 48 45 50 54 71 76 76 80 81
16 14 14 14 13 12 15 22 30 36 40 43 46 49 52 53 55 59 60 61 59 59 60 58 60 61 60 58 52 44 45 47 60 78 81 80 82 81
15 15 14 13 13 16 25 33 38 42 45 49 53 56 58 59 59 61 61 61 63 65 64 61 59 60 60 56 47 41 45 52 70 83 86 83 81 85
17 15 14 14 18 26 35 39 42 46 51 54 58 60 62 63 64 64 64 65 66 68 67 66 65 64 60 50 43 53 56 56 76 85 86 86 84 83
17 15 15 18 25 34 39 42 47 52 56 59 61 63 65 66 66 66 66 67 69 69 68 69 68 66 66 59 40 41 58 63 81 84 85 86 86 83
18 15 18 23 31 38 42 47 52 57 62 64 66 67 67 68 69 69 68 68 70 69 66 66 67 67 68 62 45 44 52 69 90 91 89 88 86 82
17 17 22 28 36 41 47 52 57 62 66 70 72 73 73 72 71 72 73 72 72 71 67 63 63 63 66 63 49 48 50 60 87 96 97 96 91 84
18 20 25 31 38 45 52 57 61 65 68 73 76 78 77 78 79 77 76 76 75 72 69 62 62 64 66 61 49 51 61 67 84 90 93 96 94 91

GFSNE_prec_cthk_039.txt.gz
RH
71 79 82 87 92 96 96 94 89 83 89 88 84 83 87 84 88 78 79 77 78 87 85 80 76 70 64 55 52 44 41 39 38 35 33 32 35 37
69 73 80 86 95 96 91 90 93 92 89 88 88 91 88 82 82 87 87 90 94 92 90 85 79 72 63 56 50 45 38 38 36 34 34 37 39 39
74 76 79 86 91 99 98 93 93 97 95 91 96 90 87 86 96 96 95 95 94 89 82 79 78 74 64 54 43 36 34 36 37 35 33 35 38 37
85 85 87 88 91 92 90 98 94 97 90 92 94 95 90 96 97 95 92 91 83 83 80 79 71 60 51 44 40 35 32 33 33 32 30 30 32 34
84 90 94 92 91 90 90 92 90 92 91 96 93 92 97 92 91 92 92 85 79 76 68 62 53 44 36 32 31 29 28 26 25 27 27 26 26 27
79 85 92 94 92 86 79 80 85 92 95 93 93 87 96 94 90 86 81 76 69 58 44 36 31 27 24 23 23 23 23 22 22 20 20 21 24 25
87 87 90 92 89 85 94 85 85 92 87 89 97 96 92 80 73 71 63 51 39 30 23 20 22 22 21 22 21 21 20 20 21 22 24 26 30 32
94 93 91 92 95 98 92 80 93 87 97 91 86 79 72 62 51 40 34 26 22 17 20 18 19 18 19 20 22 23 24 25 25 27 28 34 36 38
95 93 89 86 97 87 85 96 95 85 75 64 56 46 36 31 26 24 21 19 16 11 18 17 20 22 24 26 27 28 28 29 30 31 34 37 43 46
95 94 92 91 97 95 88 76 64 47 32 26 24 22 22 22 20 18 16 15 14 20 28 27 29 30 31 31 32 32 32 33 34 36 38 42 49 50
97 98 93 86 71 56 39 29 28 27 27 22 18 15 13 11 10 11 11 16 23 28 34 38 36 35 33 35 38 39 38 37 36 37 42 47 49 52
75 62 49 41 32 26 19 21 22 21 20 16 14 16 14 10 11 16 26 29 36 40 40 41 40 42 40 41 43 42 38 37 37 40 42 44 47 52
32 24 19 16 15 15 15 16 17 15 13 12 13 12 15 23 29 32 35 38 41 43 45 49 48 49 49 45 41 43 42 42 43 43 41 41 44 53
16 15 15 13 13 13 13 14 12 11 10 11 15 22 29 33 36 39 41 44 46 48 51 53 52 51 49 46 44 46 46 44 42 38 37 39 46 62
14 14 15 16 14 13 12 11 11 11 14 21 27 32 36 38 41 44 45 46 49 51 53 55 54 54 53 51 50 49 47 40 34 38 39 43 56 73
21 21 17 15 14 13 13 12 14 19 25 30 34 37 40 43 46 48 49 51 53 54 56 57 60 60 58 57 55 53 53 44 34 40 43 53 73 79
19 19 19 18 17 15 14 16 24 30 34 37 39 43 46 48 50 53 54 57 58 58 58 64 66 66 64 61 59 57 57 43 41 46 51 60 79 84
21 23 23 22 20 19 19 25 32 36 38 42 46 49 51 53 54 56 58 60 60 60 61 65 68 68 66 64 66 59 60 50 41 49 55 64 80 87
25 25 22 20 17 18 24 31 36 39 43 48 51 54 57 58 59 60 61 62 63 64 64 65 68 70 65 60 63 69 64 57 46 49 55 65 80 84
24 21 20 17 17 22 28 35 39 43 48 53 57 61 64 65 65 66 66 66 66 66 66 69 73 74 71 65 59 62 71 63 46 51 55 63 84 87
23 21 18 16 20 25 32 39 43 49 54 58 62 65 68 70 72 73 74 74 73 72 69 70 74 77 75 70 61 58 61 63 51 60 63 68 83 84
21 19 17 19 22 28 34 41 48 53 59 64 66 69 72 76 77 78 79 76 77 78 76 75 76 78 78 75 65 58 57 52 51 62 71 79 91 83
18 18 19 21 26 31 38 45 50 58 64 68 72 75 79 81 83 83 83 81 80 82 83 77 78 79 74 71 65 60 58 49 52 55 62 81 96 93

GFSNE_prec_cthk_045.txt.gz
RH
57 66 72 79 88 92 90 97 95 90 89 86 85 87 94 94 95 96 96 97 98 97 96 97 96 90 90 88 89 88 83 78 71 68 65 67 68 64
52 60 70 81 88 94 91 96 96 94 86 84 96 96 93 97 98 99 97 98 98 98 97 97 98 93 88 85 79 76 76 71 67 64 65 64 61 60
52 59 64 74 82 83 85 92 99 99 93 87 91 91 92 93 98 98 96 98 93 97 97 97 96 92 85 83 80 79 71 60 57 59 58 58 58 58
51 58 67 75 84 83 85 89 94 99 96 93 93 98 90 89 93 98 99 97 94 93 95 95 93 89 82 83 76 70 60 56 52 52 49 46 46 46
61 65 69 77 86 88 91 92 95 95 98 96 94 95 98 99 98 95 92 88 87 90 92 93 88 79 73 62 55 52 48 40 36 35 34 34 34 34
64 71 77 82 85 83 87 96 90 95 97 97 95 98 98 96 94 93 94 92 96 93 84 74 60 45 34 27 25 21 18 16 16 18 21 23 24 24
67 75 77 79 88 93 87 90 97 93 92 94 96 96 94 89 90 95 96 87 79 58 37 24 16 14 13 12 13 13 13 14 15 17 22 24 25 25
74 78 84 87 92 90 95 96 87 90 93 91 92 95 92 94 92 82 62 37 21 21 22 13 15 10 11 11 13 14 16 18 22 26 26 27 28 28
76 81 84 86 93 93 97 97 96 93 93 92 91 89 78 65 50 34 26 21 19 14 13 8 12 13 16 18 20 22 24 25 26 27 28 30 32 32
73 80 85 90 92 90 89 89 83 70 57 45 38 36 33 28 22 18 15 14 13 12 13 14 19 22 25 26 26 27 28 29 31 32 32 31 31 32
33 31 30 27 23 20 18 16 16 16 17 19 19 17 17 17 19 16 13 13 13 18 23 25 27 28 29 29 30 32 34 34 34 34 34 35 35 34
14 13 12 12 13 13 13 14 16 19 22 23 22 20 16 15 16 14 14 21 26 28 29 31 32 33 34 35 37 37 38 37 38 38 39 38 36 34
15 16 16 17 17 17 18 18 19 21 19 19 17 16 16 15 16 23 27 29 30 32 34 37 37 38 41 42 40 40 41 42 43 43 42 42 40 36
20 20 21 20 20 20 20 20 20 20 18 17 15 14 16 23 26 29 31 33 35 37 38 41 41 42 44 45 44 44 46 48 48 49 48 47 46 43
24 24 25 25 24 23 22 21 20 18 17 15 16 22 25 27 30 32 35 38 40 42 43 44 45 46 48 48 46 46 48 49 52 52 51 49 48 48
26 26 25 25 23 22 21 20 18 17 17 22 26 27 30 32 35 38 40 43 44 46 48 49 50 51 51 50 51 50 53 52 53 53 51 49 48 49
26 26 25 23 22 21 19 18 17 19 24 28 29 30 33 37 40 44 46 49 51 53 56 57 57 57 57 57 55 55 54 55 56 56 55 51 49 49
27 26 24 23 21 19 17 17 19 24 28 31 32 35 39 42 46 50 54 57 59 62 64 68 68 66 64 62 64 60 60 61 62 61 61 59 51 50
27 25 24 22 20 17 17 20 24 27 32 34 35 39 43 47 52 57 62 66 69 71 73 75 75 74 68 65 69 74 67 68 68 65 63 62 55 49
27 25 24 21 19 19 21 24 27 30 32 35 38 43 49 53 58 65 70 75 79 80 80 85 84 81 77 73 67 73 77 68 71 64 58 57 52 48
27 26 24 21 21 23 26 28 30 31 34 37 41 45 52 58 65 71 77 87 90 90 89 90 92 91 86 81 71 66 68 68 61 56 51 52 50 49
27 26 24 24 26 27 30 32 33 33 33 37 45 52 58 63 69 77 85 88 92 95 94 93 91 87 83 75 64 60 59 60 59 55 55 54 52 49
29 28 27 28 29 30 33 34 34 36 41 45 49 54 59 65 73 77 80 83 84 84 86 83 83 84 81 80 74 66 59 53 52 53 51 54 52 50

GFSNE_prec_cthk_048.txt.gz
RH
44 43 44 47 50 57 59 63 75 81 82 88 91 98 94 92 91 89 93 94 98 96 98 98 98 98 98 98 98 97 98 96 89 82 76 77 79 76
38 40 38 44 49 53 59 65 76 87 91 84 88 91 95 95 94 93 95 96 98 98 98 98 98 97 98 98 98 97 96 88 85 78 78 78 74 70
34 37 41 46 48 54 61 68 77 87 88 85 82 91 96 96 93 91 97 98 98 98 98 98 96 96 97 97 95 95 93 86 80 75 75 69 67 63
40 42 46 51 55 58 62 71 79 84 89 94 89 94 98 96 99 97 96 98 99 97 97 97 94 91 90 91 90 89 87 82 75 65 63 58 54 51
41 45 50 54 56 61 67 73 77 79 93 99 98 93 97 98 98 98 98 98 98 98 95 94 95 93 93 90 87 76 67 61 55 47 43 39 37 34
47 49 53 56 59 62 70 76 85 82 92 94 93 97 97 98 97 98 98 97 97 94 91 94 87 81 74 59 45 30 24 21 19 20 22 24 24 25
54 54 60 63 66 69 73 79 84 86 89 93 87 91 90 93 94 95 95 95 93 93 87 77 59 32 21 20 18 18 15 13 13 14 15 21 22 23
57 61 64 66 70 73 77 82 85 88 93 91 88 89 86 89 89 92 94 90 85 59 41 29 23 14 11 11 11 12 12 14 15 19 21 24 25 25
52 54 64 67 67 68 65 63 68 77 83 86 84 82 77 67 63 60 50 41 30 25 22 10 11 8 12 14 16 17 19 21 22 22 23 24 25 28
26 26 28 30 32 31 30 28 25 22 20 19 18 18 18 18 18 17 17 17 16 16 15 10 12 16 19 21 22 23 24 25 25 26 27 28 28 28
13 13 12 12 12 12 13 13 14 16 18 19 18 20 20 20 19 18 18 19 16 14 16 18 21 22 24 24 25 26 28 30 31 31 31 30 31 32
15 15 15 16 16 17 16 17 17 18 19 21 22 22 22 20 17 17 17 15 16 21 24 25 27 28 27 28 30 32 34 35 35 35 35 35 36 36
20 20 20 20 19 20 20 20 20 20 19 18 17 17 16 15 14 14 19 24 27 29 31 33 33 34 35 35 36 38 38 38 39 40 42 42 42 41
25 24 24 23 23 23 22 21 20 19 17 16 15 15 15 17 21 25 28 30 32 34 37 39 39 40 42 43 43 41 41 41 42 44 45 46 46 46
27 27 26 26 26 24 22 20 19 17 15 14 15 18 23 26 27 29 31 33 37 39 42 43 45 46 47 48 48 48 48 44 44 45 47 48 48 49
31 29 28 27 25 23 21 20 19 16 16 18 24 27 28 30 31 32 35 38 42 45 48 50 52 53 53 54 54 54 56 54 55 53 49 48 50 52
32 30 28 26 24 22 21 19 17 17 20 25 29 31 32 33 35 37 40 44 47 51 56 59 60 61 61 61 62 63 63 63 63 63 61 55 55 57
31 30 28 25 23 22 20 18 18 20 26 30 35 36 35 36 38 41 45 49 52 57 63 69 72 71 69 68 70 69 71 70 71 68 66 60 55 63
30 29 28 26 24 23 21 21 22 26 30 34 38 38 37 39 43 47 51 54 59 64 72 79 84 85 79 76 80 86 78 79 74 71 70 64 57 58
30 29 28 27 26 25 24 25 27 31 34 37 39 38 39 40 43 50 56 60 63 69 77 86 90 94 92 88 80 83 91 81 76 68 62 56 53 51
31 31 30 30 29 29 29 30 32 35 36 39 37 37 39 45 49 53 57 62 66 70 71 78 86 89 91 91 82 75 76 79 73 67 61 59 57 54
34 33 34 34 34 34 34 35 37 39 39 41 40 41 43 46 49 53 59 62 66 70 72 75 78 80 82 81 77 74 71 72 72 67 65 63 60 53
39 39 40 39 39 39 40 40 43 43 43 42 40 40 43 49 57 61 63 64 65 67 69 68 72 77 77 76 71 64 62 61 61 59 55 59 57 56

GFSNE_prec_cthk_051.txt.gz
RH
40 43 41 41 41 39 44 47 52 52 52 54 61 67 75 80 80 84 94 98 98 99 99 97 97 96 98 95 97 98 96 98 98 98 98 98 97 94
39 39 41 39 40 41 44 49 50 56 58 62 66 72 75 82 83 86 92 98 97 99 98 99 98 96 98 98 97 98 98 98 98 98 98 98 96 91
32 33 35 38 40 44 49 51 53 55 59 63 68 72 79 92 84 84 90 96 99 96 97 97 97 98 97 98 97 96 97 96 96 97 96 94 93 88
33 36 38 41 44 47 51 52 55 58 62 66 68 70 88 91 93 91 97 98 93 94 98 94 97 98 98 98 96 96 96 93 91 90 87 84 82 77
34 36 39 42 46 50 52 54 57 60 64 66 67 75 82 88 91 91 91 98 97 98 98 97 97 96 95 92 91 92 93 91 81 80 76 64 56 51
40 43 46 47 49 55 57 57 60 63 66 67 71 77 77 78 86 89 92 94 97 96 95 95 96 94 93 91 91 86 74 60 42 32 29 30 29 31
45 48 51 55 56 59 59 60 60 61 65 70 74 78 80 82 84 83 86 87 89 92 93 95 93 92 86 76 59 36 26 21 20 19 16 14 17 20
47 48 49 54 57 58 53 46 43 44 46 51 51 53 58 62 70 70 66 67 76 80 82 79 62 46 30 19 12 8 8 9 10 12 17 22 23 25
30 28 27 29 32 34 35 34 33 33 35 38 39 41 41 39 37 36 34 30 26 21 18 14 13 12 11 9 9 11 13 15 18 20 24 27 28 27
15 14 13 13 13 12 13 14 14 15 15 15 15 17 18 18 19 19 18 18 18 17 17 13 12 11 14 14 16 18 21 23 25 25 25 25 25 25
15 15 15 15 16 15 16 16 17 17 18 19 20 22 22 21 21 18 16 15 14 13 13 13 13 16 18 20 21 23 25 26 27 28 28 29 29 29
19 20 20 20 20 21 20 21 21 20 20 21 21 21 19 17 16 14 14 15 15 16 19 21 24 25 25 26 27 29 30 31 33 33 34 34 33 31
25 25 25 24 24 24 24 23 22 21 19 18 17 15 13 13 14 14 15 20 24 27 29 30 30 32 34 32 31 35 37 37 37 38 38 37 36 35
28 28 28 28 26 26 25 23 21 20 19 17 15 14 14 16 19 23 26 28 29 31 34 35 35 36 38 38 38 38 39 41 42 42 41 40 40 39
30 31 32 30 28 27 25 23 21 20 19 17 16 18 21 26 29 30 32 32 32 35 37 38 40 41 43 44 44 46 46 46 46 46 46 45 45 45
35 35 34 31 29 27 24 23 22 20 19 19 22 26 30 32 34 34 35 35 36 39 41 44 47 49 50 52 53 55 62 58 60 58 55 52 51 49
39 36 33 30 28 27 25 24 22 21 21 22 26 30 35 38 38 39 38 38 39 43 48 52 54 55 57 59 60 64 68 72 73 72 70 64 63 63
42 38 34 32 29 27 26 25 25 24 25 28 32 37 40 40 39 40 41 41 43 48 52 57 61 63 64 67 73 73 78 80 86 82 79 74 69 73
45 42 37 33 30 30 29 29 29 29 30 32 36 39 42 39 41 41 41 42 45 51 57 61 66 68 68 65 68 83 84 92 93 89 89 84 72 70
49 45 40 36 34 33 33 35 34 34 35 37 40 42 41 39 40 41 45 47 49 53 57 64 68 69 69 69 66 68 81 82 85 83 82 80 73 68
52 48 43 40 39 39 40 40 40 39 39 41 42 42 40 43 43 43 43 46 49 54 57 62 67 69 67 66 63 66 71 78 81 78 76 74 69 65
55 53 50 47 47 47 47 46 44 43 44 44 42 41 43 45 43 43 46 53 58 61 61 63 66 69 71 70 64 58 57 68 73 71 71 70 67 61
58 59 57 56 56 55 53 49 49 50 48 43 43 45 50 50 51 53 56 58 59 60 63 62 66 69 69 70 65 59 56 56 56 55 57 62 58 53

GFSNE_prec_cthk_054.txt.gz
RH
48 47 48 48 45 42 43 40 41 43 47 46 46 48 52 52 55 64 70 75 75 81 84 87 98 97 98 98 98 96 98 95 93 95 97 94 94 96
42 44 43 42 38 39 39 42 45 46 51 48 49 52 52 54 56 65 74 77 82 82 86 92 97 98 98 98 97 97 98 97 96 97 96 97 97 97
36 35 34 34 36 37 39 43 49 51 50 50 52 54 53 54 58 64 74 78 88 96 98 96 95 96 95 97 98 98 98 98 98 98 97 96 98 98
32 32 34 34 38 39 40 44 48 51 52 53 55 54 54 58 62 65 72 80 86 96 98 95 93 92 95 96 96 95 97 97 98 98 98 96 93 94
34 34 36 38 41 44 43 45 50 53 53 53 55 55 56 60 65 67 71 72 78 87 91 93 95 95 98 97 97 98 97 97 96 97 97 91 86 82
38 39 41 42 43 46 48 50 55 55 50 47 50 53 54 53 57 60 67 73 76 79 81 89 95 94 95 95 95 97 97 97 96 93 81 70 57 49
47 46 45 45 47 50 52 53 52 40 37 37 37 39 40 43 45 48 50 50 51 51 57 69 79 87 90 89 89 90 86 76 62 47 33 30 26 21
42 38 30 29 29 32 32 32 33 31 30 32 33 35 37 40 41 41 41 42 42 42 42 43 42 41 38 35 31 26 21 17 13 10 10 10 13 19
21 18 16 16 14 13 12 13 16 16 16 16 18 19 20 20 19 18 17 17 16 15 15 13 13 13 13 13 13 13 12 13 15 16 19 23 24 25
17 16 16 15 15 15 16 17 17 17 17 18 18 19 20 20 19 17 16 15 13 12 12 10 10 9 11 12 11 11 12 14 16 18 22 25 27 27
19 19 19 19 20 20 21 21 21 21 21 21 21 21 22 22 20 16 15 14 12 12 13 15 15 16 17 16 17 18 20 21 22 23 24 25 25 25
23 24 25 25 25 25 23 24 24 23 22 22 21 19 18 16 15 14 14 15 16 18 22 23 23 25 24 24 24 26 26 27 27 28 30 30 30 29
28 27 27 27 27 27 27 27 26 24 23 21 20 18 16 15 16 16 18 21 26 29 29 29 30 31 32 30 29 31 31 31 33 35 36 36 36 35
34 33 32 30 29 30 30 29 26 24 23 22 20 18 17 18 22 26 29 31 32 33 34 35 34 33 33 33 33 35 36 37 38 40 41 42 41 41
41 41 37 34 34 33 31 29 27 25 23 22 21 20 22 26 29 32 34 35 36 35 38 39 38 37 38 39 40 43 45 47 47 46 46 47 46 46
44 47 45 41 38 35 32 30 28 26 25 24 24 25 28 32 35 37 38 40 38 40 42 42 42 42 43 45 47 48 53 53 60 62 61 59 56 55
44 49 49 46 42 38 36 33 31 30 29 29 30 32 35 38 40 41 42 40 39 43 45 47 46 45 46 48 50 54 58 61 64 69 72 70 70 71
47 49 50 48 45 42 39 37 35 34 34 35 36 36 38 40 43 45 43 41 42 43 44 47 49 50 52 54 57 56 57 59 63 65 72 76 78 84
51 52 52 50 48 46 43 41 40 39 41 41 41 40 40 42 44 43 40 41 46 47 48 49 51 54 54 50 50 59 56 61 60 60 63 66 66 77
56 55 54 54 53 50 48 47 47 47 47 47 45 44 44 45 44 41 43 45 47 46 46 50 58 60 58 57 51 56 64 60 61 59 60 61 59 63
60 59 57 56 57 56 54 54 55 54 53 51 50 49 48 46 41 43 45 46 47 50 49 54 61 63 61 59 53 54 61 67 67 61 58 56 56 56
64 64 61 60 60 61 61 60 60 58 57 56 56 53 50 44 47 48 51 53 54 52 52 55 59 63 65 65 58 57 58 62 67 64 62 59 55 48
67 68 67 65 66 71 72 68 67 65 65 64 62 56 49 52 54 55 54 54 50 50 52 53 57 61 62 65 63 57 57 61 65 59 55 62 61 58

GFSNE_prec_cthk_057.txt.gz
RH
38 41 49 49 47 46 46 44 40 46 44 45 44 49 47 48 49 48 50 50 52 56 67 76 83 84 87 93 90 88 96 98 98 97 97 94 96 95
40 42 44 43 43 40 42 41 43 43 44 48 49 48 49 52 50 48 49 51 55 61 70 82 93 95 92 96 95 98 98 98 97 96 96 95 95 95
37 37 36 36 37 36 37 40 40 40 45 48 48 49 51 51 48 48 51 53 57 64 73 87 94 96 95 93 95 97 96 97 97 97 97 98 98 97
35 35 33 33 36 38 41 43 42 42 46 50 50 50 51 48 47 47 50 53 58 62 68 76 84 90 92 92 89 91 94 94 95 97 97 98 96 98
36 36 36 37 39 41 43 43 44 46 48 51 51 44 43 43 38 38 42 45 49 52 57 65 70 77 86 90 91 92 93 95 96 97 97 97 96 97
39 41 43 45 45 45 46 48 49 51 53 47 33 29 29 31 32 33 36 39 41 42 44 44 48 54 64 75 85 90 93 93 92 94 95 96 96 89
46 46 44 40 38 36 38 39 40 39 33 29 27 29 31 32 32 33 33 34 35 37 39 40 41 43 45 50 55 60 65 69 76 83 81 78 71 65
37 31 26 24 22 21 20 18 17 18 20 21 23 24 25 25 25 24 23 21 19 17 17 16 16 16 18 18 20 21 22 21 21 20 20 19 19 25
19 18 18 17 16 16 15 15 15 15 16 17 18 19 19 19 17 17 16 15 14 13 11 10 10 10 10 10 10 9 9 10 10 11 11 13 17 21
19 19 19 19 19 19 19 19 20 21 21 21 21 21 20 19 19 18 17 15 13 12 12 12 12 14 15 14 14 14 14 15 15 16 17 21 23 24
22 24 24 25 24 24 24 24 24 24 24 24 23 22 21 20 18 18 16 14 14 14 16 18 20 20 20 19 19 20 21 22 23 24 26 26 26 26
29 30 30 29 28 28 26 26 26 26 26 26 24 22 21 19 18 17 16 16 18 23 25 26 27 27 25 24 25 26 25 24 25 25 26 27 29 29
33 34 35 34 33 32 29 28 28 28 28 27 24 22 21 21 19 19 20 24 27 30 31 32 32 32 30 30 29 29 28 28 28 29 30 32 33 33
37 38 39 38 37 37 36 34 33 33 31 28 26 25 24 23 24 26 28 30 33 35 37 37 37 35 35 35 33 34 35 35 34 34 34 35 36 38
38 39 39 39 40 41 42 39 38 37 35 32 31 30 30 31 32 34 35 37 38 40 41 42 40 38 39 39 37 37 39 40 42 43 43 42 42 42
42 43 44 43 43 44 44 43 41 39 38 36 36 36 36 38 39 40 40 41 42 44 45 43 41 41 43 43 42 40 44 44 48 49 49 49 49 50
45 47 47 47 47 47 46 44 43 42 42 42 41 41 42 44 44 44 44 44 45 45 44 44 43 43 45 45 43 45 47 49 51 51 50 50 53 57
51 51 52 52 52 50 49 47 47 46 46 47 47 48 48 49 49 48 47 47 46 44 43 44 45 46 48 47 46 46 45 48 51 50 49 47 46 50
57 57 58 58 57 54 53 52 52 52 53 54 54 54 54 53 52 52 51 48 45 43 45 46 47 49 50 47 44 49 51 54 54 52 53 52 48 48
61 62 62 62 61 60 56 56 57 57 57 59 60 59 58 57 56 54 51 45 42 44 46 48 53 57 54 51 46 48 59 55 57 54 58 57 53 50
62 64 64 65 66 66 62 61 61 64 64 63 64 63 61 59 57 52 45 44 46 48 51 54 56 54 51 50 46 46 54 65 63 59 58 56 54 54
64 65 68 71 71 72 74 76 75 72 72 71 70 68 65 61 51 47 48 51 53 53 53 53 51 51 51 51 49 49 51 57 62 61 59 61 60 55
68 70 73 74 80 83 83 82 82 81 79 74 66 58 53 50 49 49 51 53 52 52 52 47 46 49 50 53 53 54 57 59 61 62 61 68 66 62

GFSNE_prec_cthk_060.txt.gz
RH
34 38 39 44 49 51 55 53 50 51 45 39 42 43 46 46 44 48 47 46 44 43 44 47 50 59 72 82 89 82 83 91 93 91 92 95 97 95
35 40 45 46 47 48 46 45 43 43 44 46 44 47 49 48 47 50 49 45 42 42 44 48 54 63 73 87 89 87 93 97 98 96 96 97 97 96
39 40 40 39 39 39 39 38 39 42 44 47 47 48 50 48 51 52 47 44 44 45 48 51 54 61 71 81 89 91 92 94 94 96 95 95 95 95
36 34 34 36 35 35 37 39 41 44 45 46 46 48 51 50 50 45 37 37 40 43 44 45 47 49 58 69 79 86 87 89 89 89 87 91 96 96
35 35 34 35 35 36 38 41 43 45 46 47 50 52 42 33 30 32 32 33 37 39 40 40 40 41 45 50 55 67 80 84 87 86 90 92 95 97
36 37 37 38 40 41 42 45 45 46 48 48 43 35 30 29 29 30 31 32 32 33 34 36 37 38 39 41 44 48 51 57 62 70 79 84 89 94
42 41 39 36 30 29 28 28 29 27 27 28 27 26 26 27 29 28 28 28 27 27 28 29 29 30 31 34 36 38 40 42 46 50 54 58 60 70
36 29 22 19 18 17 17 18 17 17 19 20 21 24 24 24 22 21 19 18 20 16 14 13 11 10 10 10 11 13 15 17 18 19 19 18 18 18
18 17 16 17 17 17 17 17 17 17 18 19 20 22 22 21 21 21 20 19 19 17 14 12 11 11 11 11 11 11 11 10 9 9 10 10 10 11
18 18 19 20 21 22 23 23 22 22 22 22 23 23 23 23 23 22 21 19 18 18 14 15 16 16 17 17 17 17 16 14 13 13 13 14 19 22
22 23 24 25 25 26 26 27 27 26 25 24 24 24 25 24 23 22 21 20 20 20 18 20 22 22 23 23 24 24 22 21 20 20 20 24 25 27
27 28 30 31 31 32 33 32 30 29 29 28 28 28 27 27 24 23 22 21 22 24 24 25 27 28 29 30 30 30 28 26 25 24 24 24 24 24
31 32 34 34 35 36 35 34 33 32 34 35 34 32 30 29 28 28 29 30 29 30 30 33 34 36 37 36 36 35 33 31 30 28 27 27 28 28
33 34 35 36 38 38 38 37 35 35 36 37 36 36 34 33 34 36 36 37 37 39 39 39 39 40 41 41 38 37 37 37 36 36 35 34 33 31
36 37 39 40 42 42 41 40 41 40 38 38 37 38 38 40 42 42 42 44 45 45 45 45 45 46 46 43 40 38 39 40 42 42 41 39 37 37
41 42 44 44 44 44 45 45 45 44 42 41 40 41 42 44 47 47 48 50 50 50 49 50 50 49 44 42 40 40 43 44 45 46 47 44 41 42
47 48 49 50 50 48 48 49 49 47 46 45 45 46 48 49 51 52 52 53 54 53 55 53 50 45 42 43 42 43 44 46 48 48 46 43 44 46
52 53 54 56 56 54 53 54 53 52 51 51 52 53 53 54 56 56 56 56 56 55 53 48 42 40 41 42 43 45 46 47 47 46 46 43 43 48
58 58 59 60 59 58 58 59 60 58 58 58 57 57 57 59 60 60 58 58 55 50 41 38 40 41 44 46 48 47 47 49 48 47 49 49 46 48
63 62 61 61 61 62 63 67 67 65 65 64 65 66 64 63 64 62 57 48 42 39 40 42 45 49 52 52 51 44 46 46 50 50 51 53 51 50
67 66 64 64 64 66 69 72 74 76 75 74 71 70 69 66 60 51 47 45 43 43 45 49 52 54 53 53 47 40 44 49 51 51 52 53 51 48
71 70 70 69 67 69 74 80 82 81 82 81 80 76 65 57 53 51 50 49 48 48 48 49 51 52 54 53 45 43 46 52 59 61 60 57 52 48
77 73 73 70 73 77 79 86 87 87 85 84 73 66 61 54 49 48 48 49 49 49 49 48 49 55 58 55 51 50 51 53 54 56 60 66 62 57

GFSNE_prec_cthk_063.txt.gz
RH
32 34 36 42 42 46 51 51 53 56 56 44 43 40 42 43 45 45 43 41 43 42 41 38 39 42 45 50 52 63 74 82 78 84 81 85 94 95
36 38 42 44 48 47 54 55 54 51 47 42 41 44 44 43 46 45 43 44 45 42 38 36 38 41 44 48 53 62 72 76 84 89 94 96 97 97
40 41 43 42 41 44 44 42 42 40 39 39 43 45 46 45 46 45 47 47 43 39 38 38 42 41 41 43 48 57 68 77 85 88 93 98 98 96
43 43 39 38 36 35 36 35 37 37 39 41 41 44 45 47 40 40 39 32 28 32 35 35 37 37 40 40 43 48 54 63 75 83 88 88 87 87
45 39 36 36 36 35 36 36 37 39 43 45 46 47 48 40 34 28 26 27 28 30 30 32 34 38 38 38 39 42 45 47 50 54 57 63 71 77
40 38 39 38 39 40 39 39 38 36 36 38 39 35 30 26 26 26 27 29 30 32 32 31 30 31 33 34 35 35 36 37 40 44 46 48 49 52
39 41 45 46 40 34 28 25 26 26 26 26 28 27 24 24 24 25 26 25 25 22 24 25 26 27 27 28 28 28 31 33 34 36 40 41 43 45
47 49 41 24 19 17 16 18 18 18 18 20 22 27 27 25 25 22 21 19 22 21 19 17 16 14 13 12 11 11 12 14 17 22 25 28 30 32
40 26 17 17 17 18 18 18 19 20 20 20 21 23 25 23 23 22 23 22 23 23 19 17 16 15 14 13 12 12 12 12 12 12 12 11 11 11
24 19 18 20 22 22 23 24 24 24 25 24 24 24 24 24 24 24 24 24 23 26 20 18 19 19 19 19 19 19 19 18 18 17 17 16 14 13
23 22 24 26 26 27 27 29 31 31 29 28 27 26 26 27 27 26 26 26 25 27 24 25 25 23 23 24 24 26 27 26 27 26 25 24 22 24
26 28 30 30 30 31 32 33 34 34 31 29 29 29 29 31 31 31 30 29 29 32 33 32 31 30 31 34 33 34 34 33 33 33 31 28 27 26
32 34 34 32 33 33 34 35 36 35 34 33 32 32 33 33 33 34 34 35 36 38 38 39 40 40 41 40 40 40 40 40 40 37 35 34 32 29
36 36 34 34 35 36 37 38 37 37 37 36 36 35 35 36 35 37 38 40 43 44 43 44 46 47 47 46 45 46 45 43 40 37 37 37 37 37
38 38 37 38 39 40 41 41 41 41 41 40 39 38 38 39 40 41 43 46 48 49 50 51 52 53 52 51 49 45 38 35 36 36 38 39 39 40
41 41 42 43 43 46 48 46 47 47 47 46 44 44 44 44 45 47 49 51 53 54 55 55 55 55 53 49 39 33 35 37 38 39 40 42 43 43
46 47 47 47 49 52 53 53 54 53 52 51 51 52 52 51 51 52 53 53 54 55 56 56 54 47 39 35 34 36 37 38 40 41 42 43 43 43
50 51 53 54 55 57 57 57 56 56 55 57 58 58 57 57 57 56 55 56 57 57 54 46 40 37 34 35 37 38 41 42 45 47 48 45 38 39
58 57 59 62 61 61 59 58 58 59 61 63 64 64 64 63 63 63 61 60 57 50 43 40 39 37 38 38 40 46 45 47 49 50 46 41 40 40
63 68 68 66 66 64 62 62 61 63 65 71 74 73 72 71 70 68 65 55 48 45 44 43 42 43 44 45 45 47 50 51 52 46 40 41 41 43
76 73 70 69 69 68 68 67 65 67 74 80 81 80 80 79 78 74 60 54 51 48 47 47 48 49 49 47 45 45 49 54 53 44 43 44 45 48
79 79 75 71 71 72 72 71 72 75 83 85 85 85 85 84 77 63 60 57 53 49 49 49 48 49 48 47 46 49 53 56 54 52 50 49 49 49
93 96 91 80 81 74 76 76 79 83 86 90 90 88 86 71 63 64 60 56 50 48 49 48 48 49 48 54 58 59 56 49 48 48 51 59 61 58

GFSNE_prec_cthk_066.txt.gz
RH
34 33 35 39 40 40 51 47 55 58 61 55 51 47 42 41 42 43 45 43 42 40 41 41 41 36 35 38 41 42 44 49 58 69 75 84 97 95
38 38 40 41 46 45 48 53 59 61 61 53 46 44 41 42 42 40 43 43 42 43 44 44 36 35 37 39 40 41 43 49 55 62 71 77 87 93
42 42 41 44 47 50 50 48 47 47 45 44 42 40 39 40 42 43 44 43 44 40 34 34 34 35 35 35 35 38 41 44 51 58 68 74 84 88
47 48 47 48 49 47 42 40 40 39 40 39 40 39 40 43 44 46 33 29 28 26 25 29 33 34 34 35 37 38 38 41 46 50 55 59 61 65
51 51 51 51 46 42 37 38 38 38 38 39 41 43 43 43 41 33 26 23 24 26 28 29 29 30 32 35 36 36 34 36 40 43 46 49 51 56
53 52 49 47 44 41 41 41 41 38 34 32 31 34 31 27 25 23 23 25 25 27 28 28 29 31 32 34 34 33 33 33 34 36 38 41 43 44
54 54 50 44 44 47 45 37 30 26 25 26 24 25 23 20 20 21 23 23 22 21 20 20 21 23 24 25 26 27 28 29 29 29 31 32 36 39
50 49 48 52 48 33 24 20 19 19 20 22 22 21 23 23 21 21 21 20 21 20 19 20 20 19 18 16 15 14 14 13 13 13 15 18 22 26
51 51 48 37 26 23 22 19 20 20 21 22 23 24 25 23 23 22 22 22 22 22 21 21 20 20 18 17 17 17 16 16 15 15 15 14 14 14
53 45 38 32 27 24 25 25 24 25 26 28 28 27 26 25 25 23 24 24 26 25 25 24 24 24 24 24 24 24 23 22 23 23 23 22 21 20
41 37 32 29 27 28 29 29 28 30 32 32 30 28 27 26 26 27 27 27 28 30 30 31 30 29 30 30 31 31 31 33 34 34 33 32 31 30
40 35 33 31 31 33 33 33 32 33 34 35 32 32 31 30 29 29 29 30 31 33 35 35 35 37 37 37 39 41 41 41 41 40 40 39 37 36
37 35 34 35 36 36 35 33 35 37 39 36 35 35 35 33 32 32 33 35 36 38 39 41 42 43 44 43 44 47 47 46 46 45 43 39 35 32
38 39 40 40 39 37 36 36 39 42 42 42 42 41 40 38 37 37 38 40 41 43 45 47 48 49 49 50 50 50 48 46 41 32 28 29 30 31
43 44 43 41 40 40 40 42 45 47 48 48 48 47 47 45 44 43 44 46 47 48 50 52 52 52 52 52 52 48 37 30 28 29 31 32 34 36
46 47 46 46 46 46 47 49 50 52 53 54 54 54 53 51 50 51 50 51 51 51 53 53 54 55 55 52 44 35 32 30 30 32 32 34 36 37
47 48 49 51 53 55 56 55 56 59 60 58 57 56 57 57 55 55 55 57 57 56 56 56 56 54 47 40 37 34 32 32 34 35 35 35 36 39
51 53 55 57 58 60 60 61 63 62 61 59 58 59 61 62 63 63 62 62 63 63 62 60 56 45 40 39 38 37 37 37 40 40 39 40 39 42
61 62 62 63 62 65 70 67 65 64 62 61 61 63 68 71 70 70 69 68 68 67 66 59 45 41 41 40 43 44 42 42 42 40 41 42 43 44
64 70 68 65 71 75 71 70 69 67 66 66 66 70 76 78 76 75 74 73 74 74 66 50 49 49 48 45 45 43 45 44 43 41 42 45 46 44
77 73 72 78 81 79 76 72 70 69 70 71 72 78 83 84 83 83 82 80 80 70 58 53 50 47 46 45 44 42 44 46 47 49 49 50 46 43
86 88 90 92 89 85 79 77 77 75 78 78 80 87 89 90 88 86 85 80 68 62 57 51 48 46 46 47 46 44 45 53 56 55 55 53 49 44
84 86 89 87 93 96 93 94 90 81 90 83 91 92 95 93 89 88 84 72 65 62 57 52 50 51 51 50 50 53 54 55 56 55 53 57 50 50

GFSNE_prec_cthk_069.txt.gz
RH
45 45 44 44 42 40 43 47 50 55 54 53 61 61 55 47 43 42 41 41 39 41 41 40 39 42 42 39 36 36 38 40 41 46 57 63 71 79
44 44 45 46 42 42 44 47 56 57 58 60 60 58 49 42 44 42 40 40 39 42 41 40 41 43 39 36 38 38 38 39 40 45 52 57 64 71
43 43 48 48 45 48 53 53 61 62 59 58 55 50 42 41 40 38 39 41 40 40 35 27 31 32 33 34 35 34 35 35 38 41 45 53 60 64
44 44 48 49 49 50 52 52 52 52 52 48 44 42 39 43 41 41 41 42 29 26 23 22 24 27 30 33 35 37 37 37 37 40 45 47 50 52
49 48 50 51 51 51 51 48 44 47 44 42 44 41 41 42 41 38 33 28 24 24 25 24 25 26 26 28 30 35 36 36 35 35 40 42 44 47
55 54 53 52 53 51 49 47 47 46 45 44 38 35 34 34 31 28 25 25 26 26 26 25 25 26 27 27 31 33 32 34 35 34 34 36 37 38
57 56 56 55 52 49 46 48 49 48 41 31 30 29 25 23 21 23 24 24 24 22 21 20 19 18 19 20 24 27 28 29 29 30 30 30 31 33
64 62 60 55 50 50 52 46 39 31 26 26 27 24 23 24 25 23 22 22 21 20 21 22 20 19 20 20 19 18 17 16 15 16 15 15 15 16
68 68 66 62 52 41 32 28 24 24 25 24 27 26 26 27 28 26 23 23 22 22 21 22 22 22 22 22 22 22 21 20 20 20 20 18 18 18
71 68 63 52 41 39 36 32 31 27 30 30 29 30 31 30 29 28 25 24 25 24 25 25 25 26 27 28 28 28 28 28 29 29 29 28 28 28
70 56 43 41 40 41 37 34 30 34 34 33 33 33 33 32 31 30 29 28 28 28 30 30 30 31 31 31 33 34 35 36 37 38 39 39 38 37
52 47 43 43 45 41 38 35 35 38 36 35 34 36 36 36 36 35 34 32 31 32 34 35 35 36 37 38 40 40 40 40 41 43 44 44 43 41
52 49 47 45 43 42 39 40 41 39 38 37 39 40 40 44 42 40 38 37 37 37 38 39 40 41 42 43 44 45 45 46 48 47 45 43 36 28
50 48 46 43 42 42 44 44 42 40 41 43 44 45 50 50 48 47 44 43 44 43 44 45 46 48 49 49 50 50 50 50 50 47 38 29 26 25
42 42 48 50 49 49 47 45 44 46 49 50 51 52 55 56 55 52 50 49 49 50 51 51 52 52 53 54 55 53 52 51 49 38 32 28 28 29
44 48 49 50 50 50 49 49 50 53 55 57 58 59 61 61 58 56 54 53 53 53 54 55 55 56 56 55 57 57 54 47 38 33 30 30 31 32
52 51 51 52 51 51 52 54 56 60 59 59 63 67 62 61 59 61 59 59 60 57 56 58 59 60 60 60 60 57 45 40 36 35 34 33 35 36
51 54 56 55 56 57 60 65 66 64 68 72 69 65 63 64 65 66 67 67 68 66 64 63 63 63 62 65 61 46 42 41 39 38 37 36 35 36
55 58 61 65 69 71 75 72 70 79 80 73 71 67 66 67 72 75 74 73 73 72 69 69 70 70 72 68 52 47 44 40 38 37 36 37 37 37
64 65 63 61 65 75 72 68 77 83 79 75 71 70 70 73 79 80 80 80 79 79 79 78 78 77 68 56 53 49 42 39 38 40 40 41 41 42
70 73 81 85 81 78 78 87 90 85 81 81 77 73 75 79 86 88 91 90 88 86 85 84 82 69 57 52 47 43 43 44 43 42 45 47 46 44
86 86 84 84 86 86 91 92 89 86 87 90 84 82 89 87 91 96 95 93 90 90 90 87 75 63 57 52 48 49 48 46 49 51 50 50 49 48
83 81 78 75 74 75 72 77 82 82 82 85 82 92 89 95 97 97 96 93 92 91 90 78 65 61 58 58 56 51 48 51 53 52 53 55 54 51

GFSNE_prec_cthk_072.txt.gz
RH
50 49 45 45 47 47 51 51 53 54 49 56 58 58 62 63 63 59 45 38 39 38 37 38 39 38 40 42 43 41 36 35 37 39 41 54 64 67
50 48 46 47 47 48 49 50 54 52 58 55 58 59 64 64 56 54 43 42 41 39 40 41 39 37 40 41 38 36 37 38 38 40 40 51 56 61
50 49 49 48 50 50 49 53 57 59 60 62 64 67 68 63 55 47 40 40 40 41 38 35 26 28 31 32 33 34 35 33 32 35 38 42 46 54
54 53 52 51 53 53 52 53 58 60 65 62 62 61 60 56 45 43 42 42 43 37 28 27 26 25 25 28 31 32 32 32 32 36 34 36 39 44
56 58 57 56 56 57 56 57 56 57 57 57 58 57 54 48 45 44 42 39 33 26 24 24 26 27 27 29 29 31 33 36 36 36 35 37 41 42
54 54 56 56 57 58 58 59 57 54 53 55 56 56 52 43 37 34 31 27 25 27 27 26 25 26 26 27 28 31 31 32 34 37 36 35 34 37
54 57 59 60 61 60 59 57 54 50 50 54 57 52 42 33 27 26 27 26 27 25 25 22 21 20 19 20 23 25 28 31 33 34 34 33 32 32
55 59 61 61 62 65 62 59 56 57 57 48 39 36 31 27 25 28 25 24 24 22 23 22 22 21 19 19 20 20 19 18 19 19 20 20 22 24
61 64 66 66 66 64 60 56 44 35 32 31 30 29 32 30 34 28 28 29 27 24 23 23 23 22 22 22 22 22 22 22 22 22 22 21 21 21
69 71 71 71 67 59 48 41 39 37 34 31 35 35 35 37 34 33 33 32 29 27 26 26 26 27 27 28 28 27 26 27 27 28 29 30 31 31
75 77 75 66 58 49 43 40 42 50 46 41 35 40 41 36 35 36 35 34 32 32 32 31 31 32 32 32 32 31 32 33 35 36 37 37 37 37
79 71 61 55 50 46 44 46 52 43 42 39 41 45 40 38 38 39 38 38 39 36 36 37 37 37 36 37 37 38 38 39 40 41 42 42 43 44
62 55 53 51 51 50 52 51 48 47 42 45 47 44 43 43 44 45 45 47 45 44 44 43 42 41 41 41 42 42 43 44 45 46 47 47 47 47
55 52 61 61 57 52 52 51 47 46 49 48 46 45 48 49 50 51 53 55 54 53 51 49 47 47 47 46 47 47 48 49 49 49 50 50 49 48
55 54 53 49 46 47 47 48 50 52 50 48 48 50 52 54 56 57 58 60 58 55 54 52 52 52 52 52 53 51 51 52 53 52 53 54 53 44
48 47 46 46 48 52 52 53 52 51 49 49 51 54 58 62 61 65 64 62 59 58 57 56 55 56 56 57 60 58 56 55 54 54 56 54 41 35
50 54 58 55 55 55 55 56 55 55 55 56 60 66 69 72 75 67 64 64 63 62 64 65 64 63 62 62 65 64 62 60 58 57 55 41 37 36
52 61 59 58 54 55 56 58 59 62 67 75 78 78 76 77 74 70 66 68 71 72 71 68 68 67 65 67 68 70 68 65 63 57 43 41 39 35
62 58 53 53 53 58 63 66 71 80 82 77 81 84 83 80 74 71 72 76 78 80 80 79 77 73 72 75 76 74 72 66 58 46 41 37 34 34
55 55 58 65 71 71 68 64 68 75 74 73 80 82 81 79 77 75 78 80 84 87 89 88 87 84 83 82 82 79 74 57 46 42 39 36 37 39
69 71 71 69 69 74 80 83 81 77 83 89 84 82 84 84 79 76 86 89 91 93 94 93 91 89 87 86 83 79 69 52 46 42 42 45 44 40
74 81 85 88 90 87 83 79 76 77 79 77 71 74 77 75 73 79 89 92 95 97 96 95 95 94 92 90 86 76 62 52 46 49 52 50 47 46
92 92 89 85 81 75 72 74 79 81 81 83 82 82 86 83 86 88 93 97 97 97 97 97 97 96 94 91 77 64 57 56 55 53 51 52 51 49

GFSNE_prec_cthk_078.txt.gz
RH
67 66 69 71 67 64 61 58 59 56 58 58 59 60 61 67 66 68 73 69 71 70 64 54 43 43 42 41 42 41 41 40 39 37 36 36 38 47
72 73 72 69 64 60 58 59 60 61 62 60 62 59 64 67 67 69 73 75 70 74 66 52 47 42 40 37 39 43 42 43 41 35 33 32 38 54
75 72 71 66 62 60 60 63 64 66 69 65 64 67 65 67 72 70 75 74 74 72 61 53 51 48 34 30 35 37 39 37 37 35 37 36 38 49
62 61 60 60 57 56 56 60 61 62 67 67 71 72 72 70 74 73 69 72 68 62 56 58 56 42 28 27 28 31 31 32 32 36 37 34 39 43
49 48 47 46 47 50 52 54 56 59 63 63 65 68 71 73 72 74 66 65 62 64 64 60 51 33 28 31 26 27 27 28 30 33 35 39 40 42
41 41 42 43 46 49 50 52 54 57 60 61 64 66 68 69 66 62 61 59 60 53 45 40 34 28 33 27 27 28 28 28 32 34 37 37 37 40
45 47 49 50 51 53 54 55 58 60 61 62 64 65 66 69 65 64 65 61 45 43 42 38 37 35 30 25 26 28 29 31 31 33 33 34 34 38
47 51 52 53 55 56 58 61 63 64 65 68 68 67 66 67 69 71 56 41 39 39 39 41 34 32 26 26 25 23 23 23 27 31 33 35 35 33
51 53 55 58 59 61 63 64 62 65 67 70 71 70 67 63 54 47 40 39 46 39 37 35 38 33 31 29 26 25 24 23 23 22 22 23 25 27
54 56 59 60 64 66 68 66 61 58 56 53 50 49 45 48 49 45 42 42 40 39 42 44 39 37 34 32 30 30 31 30 29 28 27 25 24 23
58 60 60 64 71 74 70 63 59 55 52 48 47 43 45 49 49 46 43 43 47 47 45 44 43 42 40 39 38 38 37 35 34 33 32 31 30 30
64 63 65 69 72 63 58 55 54 50 48 50 56 56 57 55 53 52 48 53 53 47 47 49 48 48 47 47 45 45 45 44 42 39 38 38 38 38
67 65 66 69 60 53 51 49 51 55 53 57 57 57 54 57 56 50 51 56 48 49 51 52 52 54 56 59 61 57 53 50 47 45 43 43 44 44
67 64 61 58 55 53 50 53 55 54 58 60 60 61 55 51 51 57 54 49 49 53 56 56 57 58 66 65 61 58 55 52 50 48 47 48 49 49
67 65 64 58 57 53 58 67 60 55 53 53 54 56 57 58 63 59 55 54 55 61 72 75 81 77 70 66 65 63 59 57 56 54 52 52 52 51
69 69 69 61 58 55 60 57 55 57 56 56 54 54 56 57 56 56 57 65 78 81 82 76 68 69 70 69 69 67 65 64 63 61 60 58 56 54
71 68 71 62 56 52 49 52 53 52 52 53 55 60 63 64 65 67 71 77 78 74 74 72 71 72 73 77 79 79 76 75 69 68 69 68 65 63
88 78 71 60 53 51 54 59 60 58 60 64 63 62 68 73 78 81 84 82 81 83 79 77 76 75 80 84 87 89 88 88 83 80 76 74 73 71
94 81 66 55 52 52 56 58 59 66 66 61 59 66 77 79 78 82 80 80 83 80 75 75 77 81 84 88 91 92 91 90 88 86 81 79 77 75
96 80 59 53 52 53 53 58 59 61 63 68 74 72 71 71 75 76 75 73 67 64 61 60 58 62 71 80 84 85 81 83 84 85 85 82 81 82
98 81 60 57 60 65 66 63 61 63 74 72 69 73 77 74 67 71 69 66 66 69 68 64 68 75 81 83 84 85 86 88 88 88 91 88 88 87
97 96 75 68 67 62 62 65 74 79 76 77 84 74 69 70 72 71 65 64 67 69 67 67 74 77 80 83 87 90 93 94 93 92 92 90 90 86
98 92 76 70 72 72 77 79 84 85 87 82 75 75 71 70 69 66 62 64 69 73 74 80 85 88 93 95 96 96 95 96 95 95 96 90 86 78

GFSNE_prec_cthk_081.txt.gz
RH
76 77 70 65 65 66 68 64 61 59 54 56 58 60 59 62 63 67 70 69 71 76 75 76 74 62 49 51 54 53 49 44 42 43 39 37 37 43
73 70 67 69 70 67 65 64 60 61 58 57 58 65 67 66 68 67 67 69 73 74 76 78 76 63 50 49 53 47 47 48 44 45 44 41 37 35
68 65 60 60 62 61 56 55 54 55 57 58 62 61 65 66 71 70 72 76 75 76 75 76 71 62 55 56 46 40 45 47 47 45 41 40 37 40
54 49 44 44 44 44 45 45 45 48 49 50 53 55 60 64 67 70 71 76 77 76 79 76 62 66 64 54 42 38 38 40 39 40 42 41 41 43
41 39 39 37 37 37 39 41 44 45 47 50 52 54 56 58 62 65 69 73 76 67 65 61 66 68 66 48 39 35 31 34 33 34 40 44 42 43
38 37 37 38 39 42 47 48 48 49 51 53 56 57 60 61 63 65 68 67 65 65 64 61 56 54 48 42 40 32 36 29 27 31 34 39 41 41
39 39 39 40 43 46 47 50 52 54 56 58 60 62 62 65 68 69 68 66 67 69 66 52 45 43 43 39 34 43 33 30 31 32 36 39 39 39
41 39 40 42 44 46 49 52 55 57 60 62 63 64 67 66 70 69 69 71 74 57 45 42 42 40 41 38 40 29 26 27 30 33 35 36 34 35
42 41 43 47 49 49 51 53 57 60 63 66 68 68 70 72 74 76 73 60 47 45 39 44 43 43 40 43 35 33 30 27 26 25 27 32 34 34
45 47 50 51 52 54 54 57 60 60 58 57 60 60 59 54 54 49 45 51 55 43 45 46 43 41 46 43 40 38 35 31 29 28 26 26 24 24
51 55 56 57 57 58 58 61 58 54 53 50 50 45 44 44 52 45 54 55 50 48 46 46 45 48 46 45 43 44 41 39 37 35 34 33 31 29
59 61 61 61 61 61 59 53 51 49 46 45 47 46 50 55 54 50 57 55 52 50 55 55 50 49 50 49 50 48 47 46 46 45 43 42 42 40
63 65 65 65 65 61 52 48 47 44 46 51 56 54 54 55 53 56 56 55 54 59 58 53 53 57 56 54 54 55 63 64 62 58 54 51 49 47
68 67 67 67 64 55 50 48 48 45 51 48 53 54 54 54 58 54 52 55 58 56 53 54 57 65 66 63 69 77 67 62 61 58 56 54 52 51
71 68 65 65 58 57 54 53 51 56 56 55 54 52 53 53 53 56 60 60 57 57 61 69 74 80 83 80 73 67 65 64 64 63 61 60 58 56
73 71 65 62 59 60 57 57 60 62 57 57 56 57 56 54 54 56 59 58 62 68 73 76 76 73 70 68 69 69 70 71 70 70 71 70 68 65
77 78 71 67 65 60 59 59 60 58 57 58 54 53 54 55 59 61 63 68 74 76 79 80 78 73 68 67 71 74 81 85 82 83 81 79 76 74
87 90 85 77 75 64 64 59 55 53 54 56 57 59 61 61 64 70 77 81 83 82 80 81 77 74 73 72 75 80 85 85 84 84 84 85 86 80
87 90 94 87 75 65 65 57 57 56 60 59 63 66 62 60 67 77 79 77 81 79 80 77 70 64 62 64 68 73 76 78 80 80 79 77 79 77
84 90 95 94 75 65 62 54 58 60 58 61 62 63 68 71 74 73 74 78 76 68 63 59 57 54 54 58 61 69 71 75 77 77 76 75 77 79
87 92 96 96 70 62 61 55 56 56 56 59 64 69 76 74 72 76 77 70 72 68 62 63 60 58 56 60 65 68 72 73 75 77 79 80 82 84
94 95 97 94 69 62 62 65 65 70 70 69 73 81 79 80 81 70 72 73 69 62 60 64 61 60 63 66 70 74 77 80 83 89 90 90 90 89
95 97 97 97 77 68 65 67 74 70 69 81 85 85 88 84 76 73 69 68 64 62 61 65 66 64 67 69 71 74 75 77 81 85 87 86 87 87

GFSNE_prec_cthk_084.txt.gz
RH
89 81 76 74 71 66 64 65 63 62 59 57 56 53 55 56 58 61 66 66 73 74 71 70 76 78 78 75 63 56 55 60 56 50 46 39 37 37
71 69 68 66 62 58 54 52 50 54 50 48 49 48 49 52 55 58 64 68 69 70 75 77 75 76 74 73 68 54 60 58 56 53 49 48 42 39
68 69 66 61 53 50 46 42 41 39 40 40 43 45 47 46 50 53 58 62 62 67 73 76 77 77 72 69 65 61 57 51 55 58 56 51 49 43
61 60 58 52 44 39 37 36 36 36 38 40 40 43 45 48 51 54 58 59 63 64 66 73 72 71 67 64 65 60 47 48 59 57 54 53 47 46
53 47 45 40 37 35 36 37 37 41 44 45 47 48 50 51 53 56 58 63 65 66 69 70 67 60 60 67 67 57 50 49 47 48 47 54 52 51
45 43 40 36 34 35 37 38 41 45 46 46 48 51 53 55 57 59 62 64 67 70 69 67 64 65 64 65 60 46 49 42 43 37 39 42 47 52
45 41 38 38 36 35 36 41 43 44 44 47 50 53 57 59 61 65 67 67 68 69 69 67 67 63 52 46 42 45 43 38 35 41 37 36 40 42
41 43 40 37 36 38 41 42 43 45 46 47 49 54 58 62 67 69 70 69 69 69 70 66 59 51 45 39 42 37 34 40 43 39 35 35 39 40
43 41 39 39 40 42 43 45 45 47 49 50 55 60 64 66 69 71 74 75 75 71 53 43 43 48 45 41 39 40 46 38 32 30 32 34 36 37
44 41 43 41 44 48 49 49 50 50 49 48 52 57 61 60 61 58 56 55 51 45 45 49 49 52 50 49 44 44 41 37 36 33 30 28 28 32
45 45 46 48 50 53 53 53 56 52 47 44 45 43 42 45 47 48 49 50 51 49 50 47 43 50 46 48 46 47 44 42 41 38 35 31 30 29
51 49 51 52 56 59 58 59 57 51 45 43 42 41 41 43 45 51 51 50 50 50 49 52 55 51 51 49 50 50 49 48 47 45 44 42 41 40
56 53 55 58 64 64 61 59 51 45 42 42 41 46 49 46 49 51 52 51 52 55 54 57 55 53 54 58 62 57 53 56 59 58 56 53 52 51
62 61 63 65 67 65 61 54 48 44 43 44 50 52 52 53 51 51 53 52 51 51 52 54 57 60 65 66 65 64 63 78 79 71 69 67 64 62
72 70 68 67 68 67 61 53 49 48 47 48 53 52 58 57 55 52 50 49 55 56 57 57 60 66 72 78 80 76 73 70 67 64 62 61 62 61
75 71 70 67 67 66 58 52 51 49 49 56 61 58 55 53 52 53 54 55 55 56 62 68 69 70 73 73 71 68 68 68 68 68 69 69 67 67
76 74 73 71 66 64 63 63 57 53 54 64 61 59 59 56 54 53 55 58 62 66 70 73 76 78 79 74 70 65 64 67 75 82 83 82 80 78
77 77 78 79 75 73 70 68 63 58 59 65 61 59 58 55 56 56 58 66 73 78 80 81 80 80 79 75 73 69 67 68 73 77 78 79 80 78
81 81 83 87 85 76 73 71 63 58 65 60 55 55 59 64 64 64 65 70 75 78 77 81 81 80 75 64 56 53 54 57 60 63 64 65 67 67
81 82 88 84 82 82 80 71 64 65 65 58 54 60 64 68 66 63 68 73 76 76 79 77 68 59 59 58 56 54 52 55 56 56 59 60 62 64
83 91 90 84 83 84 85 68 67 70 63 64 61 60 62 63 66 71 75 75 76 81 73 69 63 61 59 57 55 54 56 58 59 60 61 62 65 69
94 95 89 86 86 88 84 68 69 70 62 58 58 57 58 63 74 77 80 85 82 75 73 66 59 57 60 57 57 57 58 59 60 60 61 62 65 70
98 95 91 90 91 91 86 70 69 67 65 60 63 69 75 79 84 85 91 85 78 73 69 61 58 59 61 60 58 59 58 58 58 59 60 61 61 65

GFSNE_prec_cthk_087.txt.gz
RH
87 86 84 83 78 76 75 70 64 60 58 54 49 47 40 39 40 42 44 47 51 53 56 61 64 65 70 76 75 74 73 65 63 62 62 57 54 39
87 82 80 78 70 67 63 59 53 49 46 42 39 36 36 35 38 40 41 45 47 50 56 57 60 62 65 66 68 68 70 68 61 62 57 65 59 50
76 74 70 63 63 60 57 51 45 42 39 37 35 35 36 36 39 41 44 47 50 53 54 57 60 66 66 68 67 69 66 62 60 54 63 59 63 56
68 65 60 59 60 57 54 45 37 35 34 36 36 38 39 41 43 45 49 52 53 56 59 62 64 65 64 65 60 62 60 64 57 54 63 64 60 63
60 57 54 53 53 50 44 36 36 36 36 38 39 40 42 43 43 45 48 51 55 57 63 64 66 66 66 63 57 60 62 57 53 56 60 64 67 61
58 57 53 49 46 45 40 37 35 36 38 38 39 39 43 45 47 50 51 54 57 60 64 66 69 65 64 60 58 63 62 51 51 49 48 55 60 61
57 53 51 48 45 39 39 36 35 35 36 39 41 41 42 46 47 49 53 56 62 64 66 67 65 65 66 61 52 51 53 44 44 43 45 50 48 55
52 50 47 45 41 38 37 37 36 37 38 42 41 44 47 51 53 56 57 61 65 66 68 67 67 67 62 55 49 46 36 33 40 41 38 40 45 50
48 48 47 43 40 39 38 38 37 42 42 44 46 50 50 54 55 57 60 61 65 70 72 69 56 49 45 42 40 41 39 44 44 41 44 43 43 46
52 51 48 47 45 42 40 42 43 44 46 51 49 49 52 52 55 54 54 55 55 56 52 48 44 39 40 45 48 51 47 43 43 46 38 34 34 39
56 55 52 49 47 47 46 47 49 50 52 47 45 42 40 41 41 43 45 47 45 44 45 46 44 42 42 45 49 49 48 45 51 44 41 39 37 33
63 61 56 54 51 52 50 51 52 56 53 46 42 40 36 35 35 40 44 46 48 48 45 45 46 46 46 45 49 51 49 50 51 49 47 47 44 40
66 64 64 61 58 59 55 56 57 61 51 43 41 38 36 35 41 45 47 50 50 50 48 46 51 52 51 54 54 57 62 62 57 53 59 61 58 52
74 72 70 72 69 65 61 61 62 60 49 42 40 38 37 43 47 50 48 49 49 51 48 49 50 51 54 58 63 64 65 64 65 70 73 71 68 66
86 80 81 78 75 69 67 67 65 58 49 44 43 42 42 45 52 54 53 53 52 49 48 49 52 56 62 64 67 72 76 75 73 70 69 66 63 62
92 90 84 83 78 75 74 69 67 58 51 46 45 42 44 50 57 56 55 52 51 50 51 52 57 66 68 67 67 69 70 70 68 68 67 65 65 66
94 91 88 85 84 78 76 75 68 60 54 52 49 46 52 59 57 55 54 52 52 53 58 63 67 69 71 73 76 74 72 69 65 64 69 77 80 80
92 88 86 85 83 82 76 75 69 66 64 60 55 54 59 60 58 59 54 51 52 56 65 72 74 78 79 78 78 75 71 68 68 68 68 69 70 70
88 89 85 83 84 83 82 76 72 74 67 65 62 59 64 63 59 58 55 56 60 68 73 72 75 78 81 80 77 70 60 53 51 52 54 56 57 55
83 90 92 91 87 87 85 85 81 73 71 67 63 59 61 61 57 57 63 65 66 68 70 73 77 82 79 70 59 58 53 50 49 50 50 49 49 50
89 91 94 93 91 88 86 92 82 79 73 67 61 68 63 58 56 63 66 65 65 70 73 77 84 82 70 61 60 59 52 50 50 50 50 50 50 50
95 95 98 93 89 88 93 92 89 88 75 67 68 70 62 58 58 66 64 65 70 75 81 88 85 77 66 60 59 55 53 53 52 51 50 50 50 51
98 98 98 98 96 95 97 94 94 92 72 67 75 65 69 68 64 63 64 72 79 88 92 86 80 76 63 59 57 58 55 52 51 51 50 50 49 49

GFSNE_prec_cthk_090.txt.gz
RH
93 92 93 92 93 91 87 78 73 72 68 62 58 52 44 38 33 32 32 33 36 39 42 44 45 52 53 52 54 55 56 60 61 64 59 58 71 64
91 92 89 87 87 86 80 74 67 60 54 49 47 43 37 34 31 31 34 36 37 39 41 45 47 53 54 51 54 54 55 58 60 66 63 55 61 74
92 91 92 85 76 75 68 65 62 57 51 46 42 37 34 34 34 35 36 39 41 42 44 46 47 52 55 56 58 56 56 54 58 58 59 54 56 67
92 87 85 79 74 69 64 62 57 52 46 38 38 39 37 36 36 38 38 40 42 44 47 50 52 56 60 61 60 59 57 55 52 54 50 60 72 65
75 73 71 67 63 61 58 57 51 45 37 37 37 36 38 36 37 38 39 41 43 46 45 50 54 57 61 63 62 59 54 59 57 52 49 60 76 75
69 69 74 68 62 56 52 50 47 44 37 36 38 37 36 38 39 38 41 42 44 45 48 53 56 60 65 64 63 58 56 61 55 50 49 62 67 71
69 74 77 77 71 58 54 51 46 40 38 39 39 37 38 39 39 41 44 46 46 49 53 54 58 57 61 64 60 57 50 53 50 50 48 47 58 61
62 67 66 69 66 54 51 49 42 39 38 37 39 39 38 39 42 46 46 50 50 54 53 57 56 59 61 62 60 51 43 41 41 42 42 41 39 61
55 56 57 55 55 55 50 44 42 41 42 41 41 41 43 43 45 45 50 51 52 53 54 59 61 63 45 49 48 42 40 36 37 34 39 46 45 44
56 56 56 57 55 52 49 46 43 43 46 45 45 47 49 47 45 46 46 48 48 50 49 46 48 41 36 36 39 39 40 40 42 45 47 47 47 49
59 58 58 59 58 55 51 48 47 50 48 49 49 50 47 47 44 41 40 40 39 41 42 42 42 40 38 39 40 42 46 45 48 41 42 46 40 37
68 65 63 62 61 57 55 52 54 55 53 52 51 49 43 39 38 32 31 35 40 41 41 44 46 42 42 43 44 42 44 49 51 48 49 51 47 44
76 74 72 70 66 62 62 61 60 60 59 57 55 49 44 40 33 31 34 41 42 44 44 43 43 47 48 51 51 50 54 60 61 56 54 53 54 52
80 80 80 78 75 72 69 69 67 65 62 64 55 50 43 37 33 35 43 45 45 51 50 48 48 52 52 51 52 58 62 63 61 62 67 66 68 72
89 88 88 87 83 82 79 77 72 70 70 66 58 52 43 40 37 41 43 46 49 52 51 49 48 50 51 53 63 67 68 70 71 71 71 69 66 68
93 94 92 92 90 89 82 79 81 76 75 69 60 54 48 42 42 43 47 54 56 56 51 49 51 53 58 65 67 67 67 67 68 68 67 67 66 64
98 98 95 91 92 91 89 85 85 79 78 70 63 59 50 47 45 47 50 58 57 55 54 54 55 62 65 67 69 69 72 74 70 69 67 65 67 73
92 98 98 91 93 97 94 92 90 86 83 71 63 61 55 52 50 54 57 59 57 57 55 57 62 66 72 75 78 77 76 74 70 67 68 69 72 70
98 93 91 96 95 96 97 92 92 88 82 69 67 64 66 62 59 58 59 59 60 58 56 63 69 74 74 77 81 79 75 71 67 64 59 55 54 53
86 91 99 95 98 94 97 93 89 86 80 74 69 70 73 66 65 63 61 60 60 59 65 73 75 73 74 81 82 77 72 63 55 52 51 50 48 46
89 93 98 98 99 96 98 98 92 88 86 81 73 76 75 68 67 66 68 64 59 62 72 74 71 76 82 87 84 76 69 61 56 52 47 48 47 46
98 93 93 95 95 99 98 98 98 95 92 82 83 77 72 68 65 65 67 63 60 65 70 69 74 84 91 91 84 72 69 64 56 51 50 49 48 47
98 98 98 95 98 98 97 98 98 97 91 92 91 78 73 67 72 73 65 62 63 68 71 71 84 93 94 93 81 72 66 63 60 57 52 49 48 46

GFSNE_prec_cthk_093.txt.gz
RH
92 95 94 88 92 93 92 92 89 89 82 76 72 66 60 56 50 39 33 31 32 33 35 37 40 40 42 43 48 48 46 47 49 48 48 50 53 44
98 97 96 93 91 91 87 84 86 83 81 74 65 56 52 45 41 34 31 32 34 34 36 39 40 42 43 46 50 51 50 52 51 50 48 50 50 44
95 93 94 91 93 92 92 96 94 83 76 66 60 55 47 41 36 33 32 32 34 37 36 36 40 42 43 47 48 49 50 52 53 49 49 49 47 45
94 94 94 97 93 98 96 86 77 68 72 67 59 52 45 39 37 35 35 34 33 36 38 39 43 43 44 48 53 55 54 50 52 47 50 50 47 53
82 88 97 97 95 91 84 79 76 69 65 62 55 49 40 38 37 36 34 36 35 37 38 40 43 44 46 51 54 56 56 57 52 56 54 47 53 63
78 81 90 90 84 78 76 77 67 63 60 56 47 44 41 38 38 37 37 36 39 39 41 43 45 46 49 53 55 57 56 54 49 55 47 48 58 64
69 79 84 89 80 75 81 82 72 65 58 53 47 40 39 38 39 39 39 38 40 44 45 46 49 50 52 51 54 58 55 53 46 44 43 41 50 59
58 67 75 84 82 80 84 82 84 78 59 53 47 39 38 40 41 40 42 43 45 46 47 48 50 50 52 53 53 55 55 46 40 36 37 43 40 62
56 59 66 76 78 76 76 77 73 74 54 51 42 38 41 42 44 46 46 46 48 47 46 47 50 51 57 58 48 48 44 37 33 32 33 31 38 46
60 60 59 59 62 65 67 68 61 56 54 47 42 41 44 45 49 50 49 48 47 48 45 46 48 49 44 41 37 34 35 35 35 36 38 39 36 44
62 62 64 68 67 64 63 60 58 55 51 49 46 47 50 51 51 52 49 47 42 38 37 35 38 38 39 39 39 39 38 41 43 42 41 41 40 43
65 68 69 68 67 65 66 64 62 59 56 53 55 55 56 54 49 46 45 39 39 34 32 37 38 39 36 39 42 42 41 38 41 46 47 45 44 46
71 72 75 77 76 74 70 68 66 63 62 64 64 62 59 54 50 45 39 34 31 31 35 37 39 40 42 45 46 47 45 46 51 53 54 52 50 50
74 78 82 81 82 84 81 78 72 70 71 69 69 69 64 58 52 46 40 36 34 38 43 40 42 44 48 52 52 53 53 58 62 63 62 63 62 56
78 82 87 87 87 87 87 84 80 81 81 77 77 76 69 61 55 50 42 37 38 39 42 45 50 52 49 51 51 53 63 68 69 67 66 67 67 63
81 88 87 87 90 86 91 93 89 92 92 90 87 81 73 65 59 53 43 38 40 40 44 50 54 53 51 52 58 66 68 70 68 66 67 67 66 66
86 92 94 95 97 95 93 94 97 98 94 94 93 87 78 70 62 57 47 41 42 45 52 55 53 53 55 60 64 68 68 68 70 69 68 66 65 66
96 87 97 93 93 98 99 98 97 98 99 98 97 91 80 72 65 60 51 44 44 50 55 53 55 57 63 67 69 73 77 79 78 75 69 66 66 68
98 96 89 99 97 94 96 95 97 96 98 97 98 96 84 77 72 62 55 53 50 53 55 56 57 63 66 71 73 76 81 83 78 74 70 67 66 65
88 97 95 96 98 98 98 98 99 98 98 98 98 97 84 79 74 67 60 63 59 56 57 59 62 65 71 73 75 80 85 86 81 75 68 59 55 52
73 89 97 97 94 97 98 98 99 98 98 97 98 96 91 87 76 70 65 67 61 60 60 62 64 70 76 76 79 86 88 87 83 75 65 59 55 53
69 75 89 98 97 98 98 98 98 98 97 97 98 96 93 90 80 73 72 70 64 64 64 59 63 74 76 76 86 94 91 89 84 74 67 61 56 53
56 71 83 92 98 97 98 96 97 98 96 98 98 96 94 90 84 79 73 69 66 70 69 65 66 73 72 80 96 97 95 90 83 75 68 63 59 55

GFSNE_prec_cthk_096.txt.gz
RH
93 94 93 92 92 90 90 95 95 91 95 94 91 85 80 76 71 64 56 51 38 31 30 31 34 35 36 38 39 39 40 42 42 43 46 46 45 45
92 94 96 96 97 98 97 98 98 92 92 93 92 87 80 74 65 58 51 42 34 31 31 31 35 35 37 37 38 39 41 44 46 46 47 46 46 45
98 94 93 96 98 96 96 91 94 90 93 91 86 84 79 71 66 59 50 42 34 32 32 33 36 35 37 39 38 39 41 44 46 48 49 50 45 45
96 98 96 94 95 96 94 94 96 95 92 90 87 80 76 69 69 57 45 38 36 35 34 37 38 36 38 39 40 42 43 45 44 47 45 42 44 47
90 88 92 98 95 95 96 96 96 97 92 88 81 76 76 70 61 50 40 36 35 35 36 36 37 38 40 41 41 42 44 45 47 47 46 45 42 50
80 82 84 85 94 96 98 96 96 96 86 81 77 74 69 62 55 43 38 37 36 37 36 37 38 39 41 42 43 44 46 48 48 45 45 43 40 49
64 69 72 74 79 85 91 98 97 90 81 71 68 63 54 52 48 43 40 37 37 39 39 39 39 42 42 43 44 45 47 47 48 43 42 42 39 48
56 61 63 65 72 78 86 95 89 85 78 79 73 64 64 57 50 39 39 39 40 42 44 43 43 44 45 46 45 46 49 49 48 39 35 33 34 40
51 53 58 62 69 73 81 92 96 89 95 90 86 93 84 61 49 42 41 41 45 47 47 45 44 43 46 46 48 48 42 47 42 33 29 27 26 32
49 52 55 60 64 70 70 79 89 93 89 88 85 82 86 69 48 44 43 48 50 49 49 47 44 41 42 44 46 37 30 32 33 32 32 30 29 32
56 56 59 60 66 64 69 69 76 82 88 83 84 79 72 55 45 46 49 52 52 52 49 46 39 37 36 36 34 29 27 31 35 39 36 36 35 37
55 58 62 66 72 72 73 71 68 66 68 62 64 67 58 54 53 55 56 56 55 51 46 40 36 35 34 33 34 33 33 35 38 41 40 41 39 39
52 59 64 70 74 75 78 80 79 82 72 70 66 62 61 60 61 61 59 58 57 47 41 37 35 37 36 32 33 35 39 41 41 40 40 46 44 43
55 59 66 73 76 78 81 85 85 80 74 71 71 68 66 67 67 65 63 62 55 46 42 38 37 35 38 37 36 41 44 49 50 53 53 54 56 57
64 66 70 80 84 82 81 85 87 82 80 79 75 74 75 74 69 67 67 61 57 48 43 44 41 39 39 42 42 48 51 55 58 59 58 62 66 65
72 81 84 87 92 87 90 90 90 89 87 86 85 85 82 78 74 71 68 63 60 53 46 44 45 42 42 44 46 50 54 64 65 65 63 65 67 65
79 85 95 94 98 96 95 93 92 93 92 94 94 92 91 87 80 74 70 67 64 55 48 47 44 44 46 49 50 55 62 64 65 65 64 65 65 66
76 80 90 97 92 98 99 97 98 97 98 97 99 96 96 92 85 78 74 72 67 58 52 47 45 49 49 53 57 61 65 65 67 68 71 70 69 68
56 77 87 98 98 94 97 98 99 99 98 99 98 99 98 98 86 77 76 74 68 64 55 48 49 53 53 56 64 68 68 70 71 74 76 73 69 68
45 58 76 90 97 98 92 97 98 98 98 98 98 98 98 98 94 83 79 76 75 66 61 51 50 54 55 62 70 70 70 75 77 78 79 75 73 69
37 47 60 78 87 97 97 96 97 96 97 97 98 98 97 95 94 89 84 83 79 71 66 61 58 55 62 68 73 70 73 80 81 82 83 80 75 69
39 39 49 62 81 89 96 98 97 96 97 97 96 95 98 98 97 93 87 82 72 73 71 68 60 63 68 73 74 73 79 85 86 87 87 86 79 70
45 40 43 54 67 86 95 97 96 97 97 97 97 97 98 95 96 97 92 84 81 76 72 68 63 65 69 76 78 79 86 91 89 90 90 88 82 73

GFSNE_prec_cthk_099.txt.gz
RH
95 97 95 93 92 91 91 95 99 94 87 86 91 95 95 96 92 84 81 78 75 65 53 42 33 30 32 32 34 31 34 35 36 38 37 38 38 38
96 92 96 94 93 93 98 98 95 96 94 93 96 96 98 96 88 87 85 78 68 55 48 36 30 31 32 33 34 36 35 35 36 37 37 38 38 38
98 99 96 96 95 96 96 96 95 99 98 97 98 99 97 94 89 88 84 76 65 54 45 39 33 32 32 32 31 33 35 36 38 38 37 38 39 36
98 99 98 98 97 95 97 97 94 97 99 97 97 95 95 94 90 90 85 77 68 62 48 34 32 32 33 33 32 36 38 39 40 41 39 40 39 36
94 95 95 97 96 98 97 96 95 95 93 93 93 92 94 91 87 89 84 78 74 61 44 33 31 33 32 33 34 39 40 40 41 41 41 41 39 35
91 95 95 94 95 95 96 95 97 98 98 96 99 95 95 91 91 86 80 78 68 55 37 33 34 34 35 36 37 40 41 41 42 41 41 39 38 35
71 74 79 85 91 92 92 94 99 97 97 98 98 99 97 85 81 83 73 69 60 46 34 33 34 36 37 39 40 42 42 42 40 41 41 36 34 33
49 54 61 69 75 79 81 87 90 89 95 94 99 97 95 87 83 75 68 59 49 39 35 36 37 40 41 43 43 43 43 42 41 41 40 30 30 30
42 46 50 53 58 63 72 77 79 83 89 89 97 98 97 91 89 83 77 67 50 42 40 41 41 44 46 44 44 43 43 42 37 40 34 26 25 26
42 47 48 49 54 56 56 65 70 75 79 91 94 96 95 94 94 98 97 84 70 50 43 43 43 46 46 46 42 42 43 36 29 27 25 25 27 27
35 42 47 53 57 59 61 62 65 67 74 89 94 99 97 98 93 94 87 81 71 62 48 46 46 46 46 43 40 37 33 27 24 23 27 29 31 32
27 35 43 48 55 63 66 67 68 71 74 76 76 81 87 94 91 88 82 72 64 58 47 48 49 46 43 39 38 34 31 27 25 27 30 34 35 36
32 29 36 47 55 57 65 67 71 80 76 79 73 76 75 77 81 80 75 61 58 52 50 50 48 45 43 37 37 35 33 30 28 30 33 35 39 40
41 41 41 45 57 63 68 68 74 78 84 83 78 78 76 71 74 70 65 61 60 62 58 54 52 49 47 43 36 34 33 32 32 35 39 41 44 49
38 42 47 50 56 64 73 75 80 81 83 81 86 88 91 94 79 71 69 66 68 66 63 59 54 51 45 42 39 36 37 37 38 43 50 56 60 61
29 40 49 53 65 69 76 82 85 89 85 83 86 90 93 88 82 79 75 70 68 66 63 60 57 50 44 41 41 40 42 43 45 53 60 64 63 62
30 32 44 56 65 70 76 84 84 97 90 88 91 94 94 91 88 85 81 75 71 70 65 62 59 54 50 45 44 44 44 48 58 64 64 64 63 64
37 33 37 48 71 73 76 82 84 94 96 99 96 99 97 97 95 91 86 81 78 75 68 65 59 55 52 48 46 46 48 54 63 68 65 65 68 68
43 38 37 50 63 77 87 91 87 91 98 98 98 99 98 99 99 97 92 85 80 76 72 67 63 58 54 52 49 51 53 60 67 68 70 70 71 73
47 42 37 44 55 79 91 96 93 90 93 98 98 98 98 98 98 98 97 90 80 78 72 69 65 61 58 54 51 52 57 66 69 72 74 73 74 78
55 47 41 38 54 67 86 98 98 92 97 97 97 98 97 98 95 98 97 92 82 76 71 71 68 60 57 55 53 58 64 69 73 74 75 79 79 81
61 53 45 41 45 67 80 90 98 97 93 94 96 97 97 97 96 97 97 96 90 82 75 75 64 65 60 58 60 65 70 70 73 76 81 85 87 88
65 59 52 44 41 59 70 90 96 97 96 93 97 98 97 97 98 98 97 96 91 86 90 83 73 68 67 61 65 70 74 75 76 82 87 89 93 93

GFSNE_prec_cthk_102.txt.gz
RH
94 87 83 88 90 93 93 98 98 96 92 88 88 87 92 93 92 92 95 94 91 86 79 77 74 66 52 42 32 31 31 30 28 28 30 32 33 32
91 94 94 97 97 96 95 97 97 97 92 93 93 91 90 92 94 97 98 92 90 87 84 81 73 63 49 35 32 31 31 30 29 29 32 33 32 32
99 96 93 91 92 98 97 97 97 98 97 94 97 92 93 97 96 97 94 94 92 91 86 80 73 60 43 32 33 32 29 29 29 31 32 32 34 33
97 98 97 96 95 99 97 97 98 98 98 97 95 94 97 97 98 96 96 95 94 92 86 80 69 55 41 34 37 35 31 30 31 34 34 32 33 33
99 98 95 96 98 97 99 98 97 97 99 98 98 98 99 96 96 96 96 96 96 93 87 81 70 58 47 40 35 32 32 32 32 32 33 32 33 31
83 89 93 98 99 98 97 98 97 99 97 98 99 98 97 98 98 98 97 94 94 92 87 80 69 57 49 41 33 32 34 35 36 35 34 32 33 30
50 54 62 76 89 94 96 96 95 97 99 96 98 98 98 99 98 95 97 94 94 90 86 73 62 51 45 43 35 35 35 34 35 35 34 34 32 27
34 37 43 48 54 62 73 87 89 90 94 98 95 96 99 97 99 99 98 98 95 90 78 63 54 47 43 42 39 38 37 38 38 39 36 35 31 23
20 27 34 41 46 47 53 62 71 79 85 90 92 96 93 89 95 97 98 96 93 90 78 64 54 45 40 40 39 40 42 40 44 40 34 34 27 21
14 16 22 29 39 46 49 49 55 62 71 76 82 86 89 97 98 96 97 97 96 91 89 77 68 60 52 47 44 49 45 41 40 35 29 26 23 20
15 17 19 22 27 38 47 50 54 53 61 65 68 76 83 84 93 96 94 98 98 97 96 81 74 71 65 57 53 44 39 39 35 26 24 24 24 23
10 19 25 26 27 28 39 48 52 58 63 65 65 66 69 95 85 99 93 99 98 98 90 79 74 72 67 56 45 40 38 35 32 28 28 27 25 26
13 16 20 24 32 38 40 43 46 59 63 67 71 71 73 76 80 98 95 99 95 91 84 73 72 71 63 47 42 40 40 40 37 33 30 28 26 28
22 21 19 21 27 35 42 44 53 56 64 69 75 79 76 74 80 85 80 88 88 79 70 65 60 60 55 49 36 41 42 43 38 35 32 31 30 32
30 28 26 21 25 36 42 49 58 64 70 76 72 72 78 78 89 85 85 77 77 72 67 64 60 52 51 54 49 44 40 42 37 35 35 35 35 41
36 33 32 29 26 36 46 53 61 60 69 79 86 85 83 90 89 85 88 87 86 82 76 70 68 58 56 57 53 45 41 39 39 39 40 43 48 55
48 43 38 34 31 35 53 57 68 66 67 74 90 96 96 92 97 99 95 98 92 91 83 77 75 68 60 53 47 47 43 43 44 44 45 52 56 61
56 51 47 46 43 40 49 59 72 74 73 73 80 93 98 95 91 94 97 98 97 94 87 82 75 68 65 61 54 50 47 47 50 48 54 60 60 63
62 58 57 51 45 42 44 62 74 82 86 82 81 84 95 98 98 98 94 97 98 93 89 82 75 71 70 68 58 52 49 50 54 58 58 61 61 65
73 66 62 57 49 42 40 55 81 88 90 90 83 87 91 93 96 96 92 93 98 95 90 83 79 76 72 64 56 53 51 53 55 61 65 63 66 69
85 73 67 62 53 44 40 50 69 92 98 94 92 81 93 94 97 96 97 94 97 96 90 83 75 73 68 62 60 57 54 58 63 68 68 69 70 71
88 78 71 66 56 47 40 48 68 92 97 98 98 96 89 92 99 97 97 97 96 97 94 83 80 75 69 68 62 59 59 62 68 71 70 72 74 75
86 82 72 66 58 49 43 45 69 89 95 97 97 98 98 93 97 94 95 97 97 97 97 91 84 74 70 70 66 62 63 68 72 73 74 77 78 81

GFSNE_prec_cthk_105.txt.gz
RH
97 99 96 94 96 96 95 95 91 93 89 84 93 94 91 93 93 94 94 94 95 93 89 92 91 88 86 81 74 65 53 36 28 26 25 24 25 25
95 98 97 96 95 96 96 95 95 92 91 96 93 95 95 93 92 94 97 96 94 96 94 94 91 87 84 81 70 64 52 34 28 26 25 24 25 26
97 99 99 98 97 97 97 96 95 96 90 95 90 93 96 95 96 98 98 96 94 97 93 90 88 89 83 75 69 64 48 35 28 29 29 29 26 27
99 97 97 98 98 97 97 96 95 94 98 96 95 96 94 94 96 97 98 99 98 95 93 93 92 89 83 77 70 59 44 36 32 34 33 29 29 30
92 95 97 98 98 99 99 98 98 96 96 98 98 97 95 97 97 98 99 99 98 97 96 94 93 89 79 72 67 56 48 41 38 37 32 30 30 31
60 66 75 87 94 98 98 97 97 98 98 97 98 97 98 98 98 98 98 99 97 97 96 95 94 86 83 75 66 58 53 47 42 36 32 31 31 31
32 37 42 50 58 64 75 90 95 97 98 96 97 98 99 97 97 97 98 98 97 97 96 95 95 89 82 72 60 57 53 49 44 40 34 30 32 34
14 16 19 25 31 36 46 56 66 78 84 88 92 93 97 97 99 98 98 99 99 99 98 97 94 91 81 68 57 53 50 50 45 40 36 32 34 34
10 11 12 15 17 22 30 38 43 51 63 68 78 81 88 92 96 98 97 98 97 96 97 97 98 92 81 66 56 52 50 49 43 37 36 36 41 34
7 7 8 10 12 16 18 23 32 40 48 54 64 64 78 95 96 97 98 97 96 98 97 97 96 96 86 70 61 57 54 53 49 38 38 36 32 25
8 7 8 8 8 11 19 24 23 30 42 50 52 58 66 71 83 86 92 92 98 98 97 97 97 95 87 76 67 64 62 55 50 46 41 26 22 23
12 11 9 9 16 18 18 21 23 24 29 42 52 58 59 61 70 77 84 80 90 97 92 96 98 98 90 77 71 68 68 61 51 43 29 21 24 28
23 22 19 13 14 19 18 22 26 29 30 36 45 57 65 67 66 69 71 78 84 94 94 96 98 98 90 85 81 76 67 55 46 38 29 28 29 32
26 25 23 23 22 20 20 19 24 32 34 39 43 50 69 74 73 73 76 75 80 93 94 97 98 94 83 77 74 73 67 59 48 38 30 32 34 33
37 33 30 28 27 26 24 24 24 37 43 47 46 52 59 80 82 85 89 89 80 80 92 97 98 94 78 73 65 55 51 48 42 38 38 38 35 34
47 42 39 39 34 31 30 29 32 41 48 55 53 64 57 74 88 90 90 81 94 83 80 92 91 82 69 66 61 48 45 46 45 42 39 38 37 36
58 55 50 45 41 41 42 41 39 45 58 57 65 69 72 68 90 98 98 98 95 91 95 98 93 80 76 69 58 56 48 46 45 42 40 40 41 42
67 66 61 55 51 52 50 46 43 49 62 64 75 77 79 70 83 95 95 98 98 98 98 98 94 91 85 73 66 59 55 51 45 43 42 46 47 51
77 76 73 65 61 57 54 50 46 55 68 74 78 84 81 78 80 91 98 98 98 97 98 96 99 98 89 75 67 60 56 51 47 46 49 52 55 59
82 79 78 75 71 68 66 57 49 50 67 77 83 90 92 88 88 82 91 97 96 98 98 98 97 98 88 78 72 64 57 54 53 53 52 58 62 63
84 82 83 83 77 75 69 60 52 51 66 78 87 96 98 90 87 86 93 94 98 98 97 98 97 98 89 80 75 65 60 57 56 58 60 65 66 66
83 81 81 86 78 76 69 61 52 47 60 82 92 98 98 96 97 92 94 91 92 90 92 98 94 94 85 82 78 72 64 61 60 58 62 68 69 69
84 82 80 85 78 73 66 58 52 45 62 79 88 97 98 97 93 98 92 92 90 91 95 92 92 95 87 83 79 72 67 63 61 61 67 72 72 72

GFSNE_prec_cthk_108.txt.gz
RH
89 86 94 92 92 95 96 99 98 98 97 93 84 81 80 82 85 88 87 92 98 97 95 96 94 94 92 88 93 93 91 80 72 61 44 34 25 23
89 92 94 92 94 95 97 97 96 97 96 95 92 90 86 85 86 88 91 97 96 95 94 96 96 95 93 91 95 93 88 79 71 58 45 38 27 23
91 90 92 93 99 99 98 98 97 98 98 97 95 94 96 94 93 91 95 95 94 94 96 97 97 96 94 95 94 87 86 77 67 59 47 38 29 27
87 92 98 99 97 98 98 98 98 98 98 98 98 98 98 96 92 92 93 96 94 95 97 98 99 97 97 96 90 88 81 74 71 56 41 35 33 32
75 81 86 91 96 98 98 98 99 98 97 96 96 97 96 95 94 94 95 97 95 95 96 98 99 98 97 93 93 89 79 72 62 51 41 40 39 37
53 57 60 64 72 78 86 96 98 98 98 97 95 98 95 96 98 98 97 97 98 97 97 98 98 97 96 97 94 86 75 67 61 56 48 45 43 40
19 17 20 24 28 34 43 53 61 74 84 91 91 90 92 93 96 97 97 96 96 97 97 98 97 97 96 96 91 81 76 69 64 57 50 48 45 40
6 6 8 10 13 17 20 23 31 41 48 62 75 83 82 88 88 91 94 91 95 97 98 96 96 94 93 94 88 83 76 67 60 55 50 47 43 40
8 8 7 7 7 8 11 15 19 23 34 43 47 60 70 77 84 87 91 93 91 90 97 96 97 97 98 96 92 88 78 64 56 52 50 48 44 37
12 11 10 9 9 15 16 13 14 17 20 27 39 46 54 61 65 79 87 90 97 97 97 90 95 93 98 98 96 90 78 64 54 53 54 51 44 39
29 24 19 17 17 12 16 19 19 18 18 22 23 32 45 52 60 62 68 86 86 89 97 98 97 99 99 97 98 95 84 70 61 59 57 54 46 37
30 32 29 27 24 24 23 22 21 19 17 16 19 21 28 41 53 61 66 68 84 87 86 96 98 99 98 98 98 95 89 81 72 66 62 54 45 35
29 28 27 27 26 27 26 25 24 22 21 18 17 18 23 34 41 54 65 67 71 78 74 86 94 99 98 93 97 97 93 84 76 70 61 54 44 30
39 38 35 31 30 28 26 25 24 23 23 20 18 19 20 26 37 45 60 68 71 70 86 87 86 89 91 93 97 98 94 83 77 69 62 53 37 29
42 42 41 41 39 35 32 30 27 27 27 29 25 31 29 25 38 45 53 64 75 86 80 78 89 89 93 97 97 95 96 91 86 77 62 50 38 32
51 48 46 47 45 43 38 33 34 36 36 36 35 33 40 35 42 52 56 57 70 79 90 90 90 91 87 96 98 96 92 85 82 75 64 52 35 32
52 50 51 55 52 47 45 43 42 41 40 39 40 45 44 46 51 59 61 66 81 89 96 95 99 96 99 99 98 93 83 79 73 65 56 41 34 36
60 58 61 63 61 58 57 53 52 50 46 42 46 52 60 56 65 77 85 71 67 91 98 98 98 99 96 94 99 97 81 71 61 56 52 39 39 41
66 67 67 65 65 63 67 65 59 59 54 52 57 59 65 64 72 92 98 78 76 80 92 98 97 99 99 98 97 96 84 69 61 52 52 46 44 43
73 71 72 72 71 69 71 72 65 65 61 56 64 65 78 74 79 96 98 98 86 84 89 98 98 95 95 95 98 94 84 79 66 55 53 50 47 47
78 80 81 78 73 72 74 77 74 71 65 59 65 70 82 81 89 89 91 95 96 93 98 95 98 98 98 98 97 93 82 76 68 58 56 53 52 53
81 81 81 79 76 73 79 78 74 69 62 56 57 72 87 88 97 91 97 97 97 94 97 98 97 98 96 97 97 86 74 69 64 60 59 55 57 59
83 81 80 79 76 74 82 74 71 65 58 53 55 75 88 90 97 97 92 93 97 98 97 98 98 97 98 97 96 94 76 68 66 65 65 64 65 68

GFSNE_prec_cthk_111.txt.gz
RH
84 82 80 84 82 87 87 90 88 87 91 91 95 94 95 94 86 81 77 80 83 87 84 84 85 90 94 95 94 96 98 95 96 92 90 75 63 44
81 82 84 86 90 91 88 90 91 91 92 93 95 97 96 94 93 83 79 83 85 89 86 87 87 90 95 95 95 96 98 96 94 96 88 77 68 47
84 87 89 89 90 93 94 93 94 99 98 99 96 94 97 96 96 94 91 90 88 88 86 88 91 92 94 95 97 98 99 97 95 93 85 76 65 53
87 86 87 92 94 94 92 96 97 99 98 98 96 97 98 99 98 97 96 96 92 91 93 91 90 90 95 96 97 98 99 97 96 91 86 74 62 52
66 68 70 71 76 84 87 93 96 98 99 98 98 98 98 99 98 97 97 96 95 95 94 91 92 94 96 97 98 99 98 98 97 90 83 72 62 46
47 49 50 51 51 59 63 65 79 85 91 95 98 98 98 98 98 97 96 96 93 94 95 95 95 97 97 98 98 99 99 97 93 89 78 70 54 42
17 26 26 19 21 25 29 32 36 47 51 63 82 84 86 91 91 90 85 87 91 95 95 96 96 96 97 98 98 99 97 95 94 89 74 62 51 43
8 7 7 7 8 7 10 13 13 15 20 31 38 44 56 68 77 84 83 81 82 88 89 86 88 93 96 97 98 97 96 95 91 82 71 64 57 50
13 12 11 12 11 13 13 13 11 14 16 21 25 30 35 42 52 64 78 79 80 84 85 83 86 88 87 94 94 93 94 92 88 79 73 67 61 55
25 24 25 24 22 25 21 18 15 14 15 13 17 22 25 29 39 49 54 66 73 75 79 79 85 85 90 90 90 93 93 94 90 82 75 67 58 51
36 35 35 31 28 24 23 23 22 21 18 15 15 18 20 22 25 33 48 55 60 63 74 79 80 86 91 97 95 96 98 96 95 92 83 66 56 52
34 35 39 40 41 37 34 34 32 29 23 19 18 14 13 12 13 23 36 47 53 55 58 75 79 87 88 95 98 99 99 98 97 95 84 72 65 60
31 31 34 37 36 35 39 39 35 34 32 29 23 16 16 18 14 17 21 38 49 51 51 65 72 82 89 87 95 98 98 99 99 99 90 79 71 68
34 34 36 36 35 38 39 38 36 35 31 29 29 30 27 23 22 22 19 23 43 49 53 63 67 73 81 89 90 91 94 99 99 98 94 83 75 70
39 40 41 40 37 34 36 38 36 33 33 32 29 25 27 32 29 22 27 24 31 45 53 56 61 72 75 89 89 90 97 98 98 99 95 89 80 71
50 52 51 52 50 50 51 45 41 41 44 43 39 38 33 27 27 30 25 29 32 38 44 56 54 68 75 82 88 89 90 98 97 99 98 94 83 70
53 53 52 53 52 53 53 49 47 45 46 45 42 38 34 32 34 36 39 36 41 43 47 63 59 64 76 84 84 89 97 96 96 98 99 95 87 74
54 54 53 56 58 59 55 52 53 54 55 53 48 46 45 44 45 40 54 48 49 47 53 54 77 68 69 79 83 94 98 99 98 97 98 96 90 76
59 60 62 63 65 66 65 62 59 59 61 61 56 54 52 53 52 50 50 58 64 64 68 72 76 64 69 91 98 97 89 94 96 97 96 94 86 72
62 63 64 68 73 73 73 71 69 66 69 68 62 61 57 59 69 85 76 68 76 78 75 72 81 98 83 73 86 97 99 98 98 95 94 91 82 67
67 70 74 77 79 78 76 74 70 68 73 68 67 65 60 67 70 93 85 72 93 95 98 90 77 98 98 95 96 95 95 98 98 98 91 79 74 58
73 74 73 75 76 76 74 73 68 74 76 74 72 65 58 73 82 89 84 81 97 98 98 84 83 90 96 98 98 97 97 98 98 97 82 69 64 55
79 80 78 77 75 75 73 66 75 77 74 71 65 59 57 74 92 91 90 93 97 97 98 96 96 91 94 96 97 96 97 97 97 96 88 75 64 57

GFSNE_prec_cthk_114.txt.gz
RH
79 83 83 89 91 90 91 89 98 94 84 73 80 81 82 83 92 94 96 90 86 84 82 81 82 88 87 87 84 84 86 90 96 99 96 90 89 87
75 81 88 84 85 86 85 86 88 88 83 90 79 83 86 90 93 94 95 95 95 90 90 85 83 83 86 84 85 87 91 92 94 95 96 95 91 89
70 75 75 78 82 89 89 91 91 93 90 90 86 86 92 97 98 98 95 97 96 95 92 90 92 90 88 87 87 89 92 92 93 96 97 96 93 91
80 86 81 78 76 83 84 82 92 95 93 89 91 92 94 97 97 98 98 99 97 97 96 96 94 92 92 90 89 88 90 92 93 96 98 97 94 94
57 64 74 78 77 72 70 79 75 84 87 87 93 97 97 98 99 98 99 99 98 98 98 98 96 97 96 94 91 93 93 93 94 98 98 97 96 94
39 40 39 44 44 49 50 48 55 54 61 67 77 88 92 95 98 99 99 98 97 97 98 98 98 97 96 96 96 95 95 96 98 98 98 98 97 88
20 22 29 27 22 22 28 40 36 27 35 38 46 50 66 82 92 96 96 95 96 97 97 96 97 96 93 96 96 97 98 97 99 99 98 98 93 88
16 20 14 11 13 14 14 13 15 17 18 21 26 29 31 49 54 65 81 86 79 89 85 83 85 89 93 89 88 94 97 99 98 97 99 97 93 89
18 18 19 21 22 22 21 19 15 13 15 18 19 19 18 18 23 30 37 47 57 64 76 76 80 83 88 82 84 87 93 96 95 97 97 96 94 87
29 30 31 30 30 30 27 24 22 22 22 21 21 19 17 14 14 19 22 27 37 46 57 66 73 75 81 82 83 89 87 90 89 91 91 94 90 80
37 37 37 38 38 37 36 32 33 29 26 24 23 23 21 19 18 17 13 17 23 29 41 50 58 71 74 78 83 85 86 88 84 84 88 89 86 79
40 36 35 37 42 42 41 40 39 33 32 29 26 25 24 23 23 22 23 24 24 25 32 38 51 59 71 74 78 83 87 88 88 88 88 89 90 84
38 34 32 34 38 39 40 40 40 43 42 35 31 29 25 26 27 30 32 30 29 34 36 39 43 51 59 64 72 79 83 88 88 91 93 93 93 93
43 40 40 39 40 41 40 39 39 45 44 38 36 34 32 31 29 26 26 31 30 29 33 37 44 47 51 57 67 79 80 86 88 88 90 95 95 98
41 44 46 45 45 46 45 45 46 46 44 39 39 37 36 34 31 28 25 23 23 26 26 28 38 47 47 50 59 67 81 84 88 89 91 91 90 97
43 44 44 47 49 48 44 42 45 47 45 42 41 39 38 37 34 32 34 34 32 25 26 24 29 40 46 53 52 61 68 79 82 91 92 99 95 93
44 43 43 42 42 43 45 50 49 45 43 43 43 42 39 37 33 34 38 37 37 33 28 30 30 37 45 55 55 53 69 70 82 87 99 98 98 93
44 44 42 46 48 53 55 57 59 56 52 49 47 47 47 45 39 36 39 41 40 35 41 37 34 39 43 51 54 57 60 69 81 79 90 92 98 99
47 48 53 55 55 58 60 64 64 62 61 59 56 57 56 51 50 47 47 50 53 47 46 51 52 47 48 48 50 48 50 60 79 87 89 98 99 99
50 55 60 64 67 68 68 68 66 65 64 62 59 61 62 59 58 57 56 72 80 68 57 59 66 64 53 47 61 73 66 67 66 80 98 98 98 99
57 62 68 70 70 70 69 68 68 68 67 64 64 68 68 67 63 56 65 88 89 84 71 72 76 76 67 59 67 61 64 68 68 84 91 99 99 97
65 71 75 75 74 73 72 72 70 66 65 73 74 76 75 69 63 62 87 91 94 85 94 90 89 76 84 82 82 80 87 77 76 87 86 92 97 94
68 71 72 71 70 69 68 68 72 74 73 72 73 70 63 61 64 75 90 92 91 91 97 97 98 98 91 79 94 96 98 74 91 97 91 97 98 98

GFSNE_prec_cthk_120.txt.gz
RH
89 87 82 79 76 76 75 75 75 73 73 81 84 90 90 90 88 89 90 83 81 79 77 78 81 85 86 88 90 93 90 89 87 93 94 95 93 94
77 74 70 67 67 66 73 72 75 71 73 72 77 77 82 86 88 92 89 85 86 83 79 78 79 86 88 89 88 92 90 93 92 94 95 95 94 96
68 66 64 61 68 69 70 70 71 70 71 69 71 78 75 84 85 91 92 85 86 85 83 80 81 87 89 92 91 91 94 95 97 96 96 92 93 95
47 51 56 59 59 54 49 56 63 74 78 78 82 80 76 74 83 84 84 93 89 85 80 84 88 89 91 96 95 95 97 98 96 94 98 96 95 95
37 36 38 43 47 54 61 59 52 53 52 54 65 75 79 77 66 75 78 74 83 85 84 93 93 95 96 97 97 96 94 95 97 95 98 96 95 97
26 32 32 34 34 35 32 34 49 50 47 42 40 39 44 58 63 58 70 64 71 82 94 93 95 94 98 98 97 98 97 97 98 97 95 97 96 96
13 14 15 16 20 28 33 44 39 39 39 35 34 44 40 32 36 57 49 52 56 62 77 90 92 94 97 98 99 99 98 98 98 98 96 96 96 97
23 25 26 29 31 31 31 29 29 34 37 39 36 30 26 39 38 24 39 47 38 51 47 62 87 95 98 98 99 98 98 97 96 96 96 96 96 98
36 37 39 41 43 42 41 39 37 36 36 36 31 36 36 26 25 32 25 24 25 17 36 42 43 70 90 96 98 98 98 97 96 96 94 96 98 98
47 47 46 46 45 46 49 51 52 49 43 41 39 36 36 34 34 31 28 28 26 19 14 27 31 33 48 70 85 96 97 96 95 95 95 94 98 99
37 38 39 40 42 46 48 47 46 44 46 49 46 43 42 36 31 32 29 30 28 26 18 30 23 30 28 34 48 60 81 81 85 93 93 91 92 98
45 47 47 46 45 45 46 47 44 41 46 43 41 42 44 42 37 35 33 33 33 33 28 27 26 25 25 25 26 32 38 54 66 78 92 92 92 95
48 48 49 49 50 48 50 50 49 51 52 52 48 46 43 41 38 37 37 37 35 33 27 29 28 23 24 26 18 24 30 37 55 60 69 82 90 92
52 52 51 51 52 52 53 52 51 51 50 48 47 44 43 40 40 38 37 37 39 39 31 28 33 30 31 29 28 16 16 29 41 60 62 69 76 87
48 46 46 44 46 47 45 45 48 46 43 44 46 47 46 43 40 38 36 36 36 34 35 32 33 31 31 29 31 29 25 16 30 50 63 60 68 74
50 53 51 47 39 36 35 35 38 39 43 46 49 52 50 48 44 42 38 35 35 28 30 33 34 38 35 33 33 30 27 30 22 36 58 69 66 67
58 45 37 34 31 34 36 40 45 49 51 52 53 53 51 48 45 43 42 41 39 34 28 30 32 35 39 38 35 35 29 26 30 26 42 63 71 71
43 36 34 35 36 39 42 45 49 55 58 59 57 56 54 51 48 46 46 44 40 37 37 33 37 39 36 35 39 32 31 29 25 30 32 46 63 77
37 35 38 40 42 45 48 51 52 54 56 57 58 56 55 54 54 53 51 48 44 43 42 40 42 48 47 40 34 42 38 36 32 31 35 41 48 63
40 40 43 46 49 50 52 54 56 57 58 58 58 58 59 58 56 54 52 51 53 50 46 46 47 52 57 59 55 44 49 49 45 37 35 40 48 49
44 46 48 50 53 55 56 57 56 56 58 60 62 63 64 66 66 66 65 65 63 59 54 50 57 64 69 71 63 51 41 45 47 46 40 46 47 49
48 49 51 54 56 57 58 58 57 58 58 59 61 63 65 67 68 69 69 67 63 59 54 56 75 82 80 74 64 59 53 52 56 52 47 46 49 52
56 56 55 56 57 57 56 58 60 60 61 60 59 59 61 61 60 58 58 60 62 66 77 86 89 87 88 93 84 72 65 71 73 64 52 48 49 55

GFSNE_prec_cthk_123.txt.gz
RH
79 82 95 97 98 98 93 92 87 80 79 81 83 82 82 85 83 87 89 92 92 95 93 89 86 82 80 79 78 81 82 83 88 89 92 95 98 98
89 90 95 93 91 88 82 80 76 75 79 76 75 75 76 74 76 73 81 84 88 92 90 90 91 89 84 81 78 80 83 84 83 88 90 93 99 99
77 78 77 75 76 73 73 70 72 72 69 68 68 68 68 71 73 72 72 71 74 79 88 89 92 88 85 83 82 82 83 86 86 85 89 92 98 99
46 54 51 44 42 47 49 53 50 52 51 48 49 49 56 63 66 75 73 70 75 79 79 88 88 89 89 87 89 88 87 89 90 87 88 91 94 96
25 24 26 30 34 33 32 32 36 42 49 51 47 43 38 36 42 52 63 67 70 73 75 82 91 91 89 91 91 90 88 85 88 89 89 92 96 96
11 12 13 15 20 25 33 34 35 36 35 35 32 34 42 44 41 39 38 47 63 66 68 71 77 92 93 95 90 89 90 97 94 93 90 91 97 96
27 21 20 21 22 24 25 23 23 22 26 29 35 39 37 40 36 34 38 42 29 38 53 63 64 67 82 91 90 92 97 99 98 99 94 95 95 99
32 41 45 41 37 34 36 38 39 36 32 30 30 30 33 35 41 44 36 35 38 35 37 44 44 51 58 76 90 98 99 99 98 97 98 98 98 98
38 38 37 38 42 48 48 46 46 45 47 49 47 42 38 36 36 35 35 39 34 28 37 32 44 45 52 61 64 90 98 98 98 98 98 98 98 98
36 38 39 40 40 40 42 41 45 47 49 50 47 46 44 46 46 40 36 35 35 30 26 36 28 34 34 35 49 63 79 96 97 98 99 98 97 96
38 40 41 43 44 45 47 44 43 42 43 44 46 48 49 49 49 49 45 39 33 30 31 37 34 26 22 16 24 39 57 65 91 97 99 98 97 96
38 42 45 46 49 51 49 48 46 44 44 43 45 46 43 42 44 48 45 45 44 43 31 35 30 30 33 28 16 22 35 49 57 81 98 99 96 97
30 35 41 45 50 51 52 53 51 51 51 48 46 46 44 43 41 41 40 42 43 44 39 40 35 29 33 35 23 21 18 20 41 53 82 88 83 83
33 36 38 42 45 46 46 44 42 40 36 36 39 41 43 43 42 39 38 39 40 40 36 37 42 37 33 33 32 24 20 16 19 37 60 69 69 72
41 44 49 51 48 37 29 31 32 30 31 30 30 31 33 37 41 43 43 40 37 35 36 34 36 37 40 40 36 30 28 21 18 19 34 49 57 63
48 54 55 45 35 29 28 30 33 36 38 39 39 39 40 42 43 43 40 39 39 33 34 34 34 36 35 40 42 37 28 28 23 19 20 35 57 61
56 56 45 36 29 29 32 34 36 39 40 43 46 46 46 46 46 47 46 43 41 37 33 37 36 36 37 37 38 36 30 27 23 22 24 19 30 60
59 50 40 36 34 34 35 37 39 41 42 44 45 48 48 47 46 46 47 47 45 42 37 36 38 41 41 37 39 35 36 32 27 26 26 28 23 35
57 49 46 44 40 40 42 44 45 47 48 49 49 50 52 54 54 50 51 50 47 45 43 40 41 44 44 42 36 46 42 36 31 33 30 28 26 25
59 57 54 47 43 45 48 50 51 51 51 52 53 53 54 56 58 59 61 59 55 52 50 50 49 49 49 46 41 33 50 48 44 36 35 34 31 28
67 66 62 56 54 52 52 52 55 59 61 62 60 60 59 59 60 62 63 65 66 65 61 58 56 55 55 55 50 38 44 56 55 48 38 41 42 39
72 64 62 63 62 63 63 65 67 69 70 70 68 63 59 58 57 58 59 58 58 58 57 55 52 53 57 65 68 64 57 60 61 55 45 43 47 47
63 59 62 63 64 67 70 74 76 78 84 80 75 74 67 58 58 60 64 69 75 77 75 76 79 85 88 85 82 77 74 74 68 58 45 41 43 50

GFSNE_prec_cthk_126.txt.gz
RH
79 75 69 65 69 73 80 83 95 98 99 99 99 98 94 93 90 88 89 90 89 88 91 96 92 91 92 92 88 82 85 83 83 83 86 89 94 93
67 68 70 70 71 78 85 92 93 98 98 98 97 96 94 91 85 83 78 84 89 88 83 84 84 88 90 89 89 89 87 82 79 80 81 87 93 94
44 46 55 67 76 77 78 80 82 88 92 92 92 92 90 83 78 77 76 70 75 77 73 74 77 80 84 88 89 89 90 86 83 81 78 84 85 91
12 15 22 24 30 47 54 52 51 56 61 65 65 63 61 60 62 58 57 60 68 69 66 67 69 72 79 81 85 85 87 86 84 85 80 82 86 86
16 16 16 13 14 23 25 26 32 34 31 29 30 30 31 37 44 45 41 39 36 40 55 63 63 66 73 79 82 86 84 85 85 84 87 88 86 85
15 16 18 20 21 22 18 18 19 26 33 37 35 33 32 33 34 31 32 38 38 32 31 38 56 56 62 68 77 83 86 87 87 86 88 91 92 87
24 24 23 24 27 32 42 39 30 29 29 30 32 33 31 28 29 32 37 35 32 35 35 36 36 42 47 58 67 74 85 86 91 91 93 91 88 84
26 27 29 30 29 28 31 36 45 49 44 38 37 36 36 36 33 33 34 33 32 34 36 31 34 39 32 34 50 72 70 80 88 90 94 94 90 89
29 30 31 33 35 36 35 35 39 42 44 48 52 49 45 42 42 44 43 41 38 34 32 36 34 34 36 39 39 40 51 63 77 90 94 94 90 98
28 29 31 32 35 36 40 42 41 42 45 45 46 45 48 51 54 52 45 46 42 41 37 35 33 33 35 27 32 41 48 54 68 82 86 94 91 97
29 29 29 29 30 33 37 42 47 49 49 48 48 50 49 49 50 52 49 46 42 40 38 39 38 33 30 30 27 28 34 42 47 58 86 92 95 96
28 29 30 32 33 35 35 36 36 39 42 44 47 47 49 51 51 49 47 44 43 41 37 40 36 38 38 29 31 29 27 26 31 35 48 81 91 95
32 33 35 37 40 43 46 46 44 41 37 30 28 27 27 29 32 37 40 42 42 40 36 40 41 36 39 40 30 27 27 27 23 29 22 42 75 85
35 38 40 42 46 50 49 40 34 31 27 27 27 27 28 27 27 29 31 36 39 37 36 38 38 37 38 37 40 30 26 26 26 28 26 20 47 77
37 42 44 47 50 46 35 29 28 27 28 29 30 31 32 33 35 36 38 40 38 34 35 34 34 36 37 38 35 32 32 25 26 25 32 27 22 50
40 44 48 52 48 38 34 34 33 32 32 35 35 35 36 37 38 39 39 39 37 33 35 35 36 37 34 35 37 32 30 35 27 26 24 24 26 31
43 47 53 52 46 43 43 41 37 36 36 38 39 39 39 39 40 40 40 40 39 34 32 35 38 39 37 34 34 32 28 32 31 30 29 24 22 23
46 52 55 53 50 49 43 39 40 41 42 43 43 44 44 43 42 42 42 42 43 42 40 39 39 38 37 32 35 31 32 31 34 34 37 34 24 21
49 57 58 58 52 50 50 48 44 47 52 55 56 57 57 52 49 47 46 47 48 47 48 48 46 46 43 37 34 41 36 33 37 39 38 39 36 26
55 60 61 53 54 56 58 60 62 62 64 66 67 66 66 64 56 50 50 52 53 54 55 58 59 58 55 47 39 37 44 40 38 38 41 41 40 35
61 64 57 56 59 62 64 68 70 73 75 76 74 78 74 71 60 53 52 53 54 55 54 53 56 58 56 52 44 40 40 48 47 40 42 49 45 40
66 63 55 59 64 64 67 72 73 78 82 87 89 88 88 77 64 60 61 65 68 70 73 71 70 75 75 70 62 52 54 60 59 51 48 51 52 45
68 58 58 63 63 62 70 78 86 91 95 97 97 97 97 90 78 71 72 72 69 74 78 81 84 88 89 89 86 81 73 69 68 60 53 54 53 51